<?xml version="1.0" encoding="UTF-8" standalone="no" ?>
<gpx xmlns="http://www.topografix.com/GPX/1/1" xmlns:xsi="http://www.w3.org/2001/XMLSchema-instance" xsi:schemaLocation="http://www.topografix.com/GPX/1/1 http://www.topografix.com/GPX/1/1/gpx.xsd" version="1.1" creator="VisuGPX - https://www.visugpx.com">
  <metadata>
    <name>Bois de Névet 23 km</name>
    <desc><![CDATA[Bois du Névet, via les Haiuts de Locronan, au départ de Plogonnec]]></desc>
  </metadata>
  <trk>
    <name><![CDATA[20171226000325-5WxEH]]></name>
    <trkseg>
      <trkpt lat="48.07557" lon="-4.19208">
        <ele>125</ele>
        <time>2015-02-26T10:37:49Z</time>
      </trkpt>
      <trkpt lat="48.07538" lon="-4.19214">
        <ele>125</ele>
        <time>2015-02-26T10:37:49Z</time>
      </trkpt>
      <trkpt lat="48.07531" lon="-4.1924">
        <ele>125</ele>
        <time>2015-02-26T10:37:49Z</time>
      </trkpt>
      <trkpt lat="48.07519" lon="-4.19267">
        <ele>127</ele>
        <time>2015-02-26T10:37:49Z</time>
      </trkpt>
      <trkpt lat="48.07507" lon="-4.19299">
        <ele>127</ele>
        <time>2015-02-26T10:37:49Z</time>
      </trkpt>
      <trkpt lat="48.07494" lon="-4.19331">
        <ele>128</ele>
        <time>2015-02-26T10:37:49Z</time>
      </trkpt>
      <trkpt lat="48.07486" lon="-4.19352">
        <ele>127</ele>
        <time>2015-02-26T10:37:49Z</time>
      </trkpt>
      <trkpt lat="48.07479" lon="-4.19375">
        <ele>126</ele>
        <time>2015-02-26T10:37:49Z</time>
      </trkpt>
      <trkpt lat="48.07477" lon="-4.19386">
        <ele>126</ele>
        <time>2015-02-26T10:37:49Z</time>
      </trkpt>
      <trkpt lat="48.0748" lon="-4.19392">
        <ele>126</ele>
        <time>2015-02-26T10:37:49Z</time>
      </trkpt>
      <trkpt lat="48.07517" lon="-4.19412">
        <ele>127</ele>
        <time>2015-02-26T10:37:49Z</time>
      </trkpt>
      <trkpt lat="48.07554" lon="-4.19431">
        <ele>126</ele>
        <time>2015-02-26T10:37:49Z</time>
      </trkpt>
      <trkpt lat="48.0759" lon="-4.19451">
        <ele>127</ele>
        <time>2015-02-26T10:37:49Z</time>
      </trkpt>
      <trkpt lat="48.07627" lon="-4.19469">
        <ele>127</ele>
        <time>2015-02-26T10:37:49Z</time>
      </trkpt>
      <trkpt lat="48.07636" lon="-4.19473">
        <ele>127</ele>
        <time>2015-02-26T10:37:49Z</time>
      </trkpt>
      <trkpt lat="48.07661" lon="-4.19481">
        <ele>127</ele>
        <time>2015-02-26T10:37:49Z</time>
      </trkpt>
      <trkpt lat="48.07688" lon="-4.19482">
        <ele>128</ele>
        <time>2015-02-26T10:37:49Z</time>
      </trkpt>
      <trkpt lat="48.07706" lon="-4.19481">
        <ele>128</ele>
        <time>2015-02-26T10:37:49Z</time>
      </trkpt>
      <trkpt lat="48.07722" lon="-4.19476">
        <ele>128</ele>
        <time>2015-02-26T10:37:49Z</time>
      </trkpt>
      <trkpt lat="48.07729" lon="-4.19465">
        <ele>128</ele>
        <time>2015-02-26T10:37:49Z</time>
      </trkpt>
      <trkpt lat="48.07735" lon="-4.19453">
        <ele>128</ele>
        <time>2015-02-26T10:37:49Z</time>
      </trkpt>
      <trkpt lat="48.0774" lon="-4.19434">
        <ele>128</ele>
        <time>2015-02-26T10:37:49Z</time>
      </trkpt>
      <trkpt lat="48.07746" lon="-4.19411">
        <ele>128</ele>
        <time>2015-02-26T10:37:49Z</time>
      </trkpt>
      <trkpt lat="48.07752" lon="-4.19388">
        <ele>128</ele>
        <time>2015-02-26T10:37:49Z</time>
      </trkpt>
      <trkpt lat="48.07761" lon="-4.19355">
        <ele>128</ele>
        <time>2015-02-26T10:37:49Z</time>
      </trkpt>
      <trkpt lat="48.07773" lon="-4.19311">
        <ele>128</ele>
        <time>2015-02-26T10:37:49Z</time>
      </trkpt>
      <trkpt lat="48.07777" lon="-4.19261">
        <ele>128</ele>
        <time>2015-02-26T10:37:49Z</time>
      </trkpt>
      <trkpt lat="48.07781" lon="-4.19219">
        <ele>127</ele>
        <time>2015-02-26T10:37:49Z</time>
      </trkpt>
      <trkpt lat="48.0778" lon="-4.192">
        <ele>127</ele>
        <time>2015-02-26T10:37:49Z</time>
      </trkpt>
      <trkpt lat="48.07781" lon="-4.19179">
        <ele>127</ele>
        <time>2015-02-26T10:37:49Z</time>
      </trkpt>
      <trkpt lat="48.07794" lon="-4.19156">
        <ele>126</ele>
        <time>2015-02-26T10:37:49Z</time>
      </trkpt>
      <trkpt lat="48.07807" lon="-4.19135">
        <ele>126</ele>
        <time>2015-02-26T10:37:49Z</time>
      </trkpt>
      <trkpt lat="48.07815" lon="-4.19122">
        <ele>126</ele>
        <time>2015-02-26T10:37:49Z</time>
      </trkpt>
      <trkpt lat="48.07827" lon="-4.19116">
        <ele>126</ele>
        <time>2015-02-26T10:37:49Z</time>
      </trkpt>
      <trkpt lat="48.07829" lon="-4.19103">
        <ele>126</ele>
        <time>2015-02-26T10:37:49Z</time>
      </trkpt>
      <trkpt lat="48.07833" lon="-4.19067">
        <ele>125</ele>
        <time>2015-02-26T10:37:49Z</time>
      </trkpt>
      <trkpt lat="48.0784" lon="-4.19027">
        <ele>124</ele>
        <time>2015-02-26T10:37:49Z</time>
      </trkpt>
      <trkpt lat="48.07845" lon="-4.18985">
        <ele>123</ele>
        <time>2015-02-26T10:37:49Z</time>
      </trkpt>
      <trkpt lat="48.07849" lon="-4.18949">
        <ele>123</ele>
        <time>2015-02-26T10:37:49Z</time>
      </trkpt>
      <trkpt lat="48.07846" lon="-4.1894">
        <ele>123</ele>
        <time>2015-02-26T10:37:49Z</time>
      </trkpt>
      <trkpt lat="48.0783" lon="-4.18935">
        <ele>123</ele>
        <time>2015-02-26T10:37:49Z</time>
      </trkpt>
      <trkpt lat="48.07814" lon="-4.18929">
        <ele>123</ele>
        <time>2015-02-26T10:37:49Z</time>
      </trkpt>
      <trkpt lat="48.07797" lon="-4.18921">
        <ele>122</ele>
        <time>2015-02-26T10:37:49Z</time>
      </trkpt>
      <trkpt lat="48.0778" lon="-4.18912">
        <ele>121</ele>
        <time>2015-02-26T10:37:49Z</time>
      </trkpt>
      <trkpt lat="48.07764" lon="-4.18904">
        <ele>120</ele>
        <time>2015-02-26T10:37:49Z</time>
      </trkpt>
      <trkpt lat="48.07747" lon="-4.18891">
        <ele>118</ele>
        <time>2015-02-26T10:37:49Z</time>
      </trkpt>
      <trkpt lat="48.07729" lon="-4.18879">
        <ele>118</ele>
        <time>2015-02-26T10:37:49Z</time>
      </trkpt>
      <trkpt lat="48.07717" lon="-4.18871">
        <ele>118</ele>
        <time>2015-02-26T10:37:49Z</time>
      </trkpt>
      <trkpt lat="48.07704" lon="-4.18852">
        <ele>117</ele>
        <time>2015-02-26T10:37:49Z</time>
      </trkpt>
      <trkpt lat="48.07689" lon="-4.1883">
        <ele>117</ele>
        <time>2015-02-26T10:37:49Z</time>
      </trkpt>
      <trkpt lat="48.07674" lon="-4.18807">
        <ele>117</ele>
        <time>2015-02-26T10:37:49Z</time>
      </trkpt>
      <trkpt lat="48.07667" lon="-4.18797">
        <ele>118</ele>
        <time>2015-02-26T10:37:49Z</time>
      </trkpt>
      <trkpt lat="48.07673" lon="-4.18744">
        <ele>116</ele>
        <time>2015-02-26T10:37:49Z</time>
      </trkpt>
      <trkpt lat="48.07678" lon="-4.18691">
        <ele>115</ele>
        <time>2015-02-26T10:37:49Z</time>
      </trkpt>
      <trkpt lat="48.07688" lon="-4.18642">
        <ele>113</ele>
        <time>2015-02-26T10:37:49Z</time>
      </trkpt>
      <trkpt lat="48.07699" lon="-4.18589">
        <ele>112</ele>
        <time>2015-02-26T10:37:49Z</time>
      </trkpt>
      <trkpt lat="48.07705" lon="-4.18561">
        <ele>111</ele>
        <time>2015-02-26T10:37:49Z</time>
      </trkpt>
      <trkpt lat="48.0773" lon="-4.18544">
        <ele>111</ele>
        <time>2015-02-26T10:37:49Z</time>
      </trkpt>
      <trkpt lat="48.0776" lon="-4.1852">
        <ele>110</ele>
        <time>2015-02-26T10:37:49Z</time>
      </trkpt>
      <trkpt lat="48.07772" lon="-4.1851">
        <ele>110</ele>
        <time>2015-02-26T10:37:49Z</time>
      </trkpt>
      <trkpt lat="48.07792" lon="-4.1848">
        <ele>110</ele>
        <time>2015-02-26T10:37:49Z</time>
      </trkpt>
      <trkpt lat="48.07816" lon="-4.18451">
        <ele>110</ele>
        <time>2015-02-26T10:37:49Z</time>
      </trkpt>
      <trkpt lat="48.07839" lon="-4.18472">
        <ele>110</ele>
        <time>2015-02-26T10:37:49Z</time>
      </trkpt>
      <trkpt lat="48.07861" lon="-4.18495">
        <ele>110</ele>
        <time>2015-02-26T10:37:49Z</time>
      </trkpt>
      <trkpt lat="48.07888" lon="-4.18521">
        <ele>111</ele>
        <time>2015-02-26T10:37:49Z</time>
      </trkpt>
      <trkpt lat="48.07899" lon="-4.18479">
        <ele>110</ele>
        <time>2015-02-26T10:37:49Z</time>
      </trkpt>
      <trkpt lat="48.07914" lon="-4.18442">
        <ele>110</ele>
        <time>2015-02-26T10:37:49Z</time>
      </trkpt>
      <trkpt lat="48.07931" lon="-4.18405">
        <ele>110</ele>
        <time>2015-02-26T10:37:49Z</time>
      </trkpt>
      <trkpt lat="48.07948" lon="-4.18368">
        <ele>110</ele>
        <time>2015-02-26T10:37:49Z</time>
      </trkpt>
      <trkpt lat="48.07967" lon="-4.18326">
        <ele>112</ele>
        <time>2015-02-26T10:37:49Z</time>
      </trkpt>
      <trkpt lat="48.07987" lon="-4.18279">
        <ele>114</ele>
        <time>2015-02-26T10:37:49Z</time>
      </trkpt>
      <trkpt lat="48.08007" lon="-4.18233">
        <ele>118</ele>
        <time>2015-02-26T10:37:49Z</time>
      </trkpt>
      <trkpt lat="48.08028" lon="-4.18186">
        <ele>119</ele>
        <time>2015-02-26T10:37:49Z</time>
      </trkpt>
      <trkpt lat="48.08049" lon="-4.18133">
        <ele>116</ele>
        <time>2015-02-26T10:37:49Z</time>
      </trkpt>
      <trkpt lat="48.08058" lon="-4.1811">
        <ele>116</ele>
        <time>2015-02-26T10:37:49Z</time>
      </trkpt>
      <trkpt lat="48.08066" lon="-4.18117">
        <ele>116</ele>
        <time>2015-02-26T10:37:49Z</time>
      </trkpt>
      <trkpt lat="48.08082" lon="-4.18135">
        <ele>116</ele>
        <time>2015-02-26T10:37:49Z</time>
      </trkpt>
      <trkpt lat="48.08099" lon="-4.18153">
        <ele>116</ele>
        <time>2015-02-26T10:37:49Z</time>
      </trkpt>
      <trkpt lat="48.08116" lon="-4.1817">
        <ele>117</ele>
        <time>2015-02-26T10:37:49Z</time>
      </trkpt>
      <trkpt lat="48.08133" lon="-4.18188">
        <ele>117</ele>
        <time>2015-02-26T10:37:49Z</time>
      </trkpt>
      <trkpt lat="48.0815" lon="-4.18206">
        <ele>116</ele>
        <time>2015-02-26T10:37:49Z</time>
      </trkpt>
      <trkpt lat="48.08167" lon="-4.18223">
        <ele>116</ele>
        <time>2015-02-26T10:37:49Z</time>
      </trkpt>
      <trkpt lat="48.08187" lon="-4.18243">
        <ele>115</ele>
        <time>2015-02-26T10:37:49Z</time>
      </trkpt>
      <trkpt lat="48.08211" lon="-4.18251">
        <ele>116</ele>
        <time>2015-02-26T10:37:49Z</time>
      </trkpt>
      <trkpt lat="48.08237" lon="-4.18262">
        <ele>116</ele>
        <time>2015-02-26T10:37:49Z</time>
      </trkpt>
      <trkpt lat="48.0826" lon="-4.1827">
        <ele>117</ele>
        <time>2015-02-26T10:37:49Z</time>
      </trkpt>
      <trkpt lat="48.08285" lon="-4.18281">
        <ele>117</ele>
        <time>2015-02-26T10:37:49Z</time>
      </trkpt>
      <trkpt lat="48.0831" lon="-4.18292">
        <ele>118</ele>
        <time>2015-02-26T10:37:49Z</time>
      </trkpt>
      <trkpt lat="48.08333" lon="-4.18302">
        <ele>118</ele>
        <time>2015-02-26T10:37:49Z</time>
      </trkpt>
      <trkpt lat="48.08356" lon="-4.18311">
        <ele>119</ele>
        <time>2015-02-26T10:37:49Z</time>
      </trkpt>
      <trkpt lat="48.08373" lon="-4.18319">
        <ele>119</ele>
        <time>2015-02-26T10:37:49Z</time>
      </trkpt>
      <trkpt lat="48.08372" lon="-4.18337">
        <ele>120</ele>
        <time>2015-02-26T10:37:49Z</time>
      </trkpt>
      <trkpt lat="48.08371" lon="-4.18354">
        <ele>120</ele>
        <time>2015-02-26T10:37:49Z</time>
      </trkpt>
      <trkpt lat="48.08372" lon="-4.1837">
        <ele>120</ele>
        <time>2015-02-26T10:37:49Z</time>
      </trkpt>
      <trkpt lat="48.08375" lon="-4.18376">
        <ele>120</ele>
        <time>2015-02-26T10:37:49Z</time>
      </trkpt>
      <trkpt lat="48.08399" lon="-4.1838">
        <ele>121</ele>
        <time>2015-02-26T10:37:49Z</time>
      </trkpt>
      <trkpt lat="48.08428" lon="-4.18381">
        <ele>123</ele>
        <time>2015-02-26T10:37:49Z</time>
      </trkpt>
      <trkpt lat="48.08457" lon="-4.1838">
        <ele>124</ele>
        <time>2015-02-26T10:37:49Z</time>
      </trkpt>
      <trkpt lat="48.08486" lon="-4.18379">
        <ele>125</ele>
        <time>2015-02-26T10:37:49Z</time>
      </trkpt>
      <trkpt lat="48.08499" lon="-4.18379">
        <ele>125</ele>
        <time>2015-02-26T10:37:49Z</time>
      </trkpt>
      <trkpt lat="48.08522" lon="-4.18401">
        <ele>129</ele>
        <time>2015-02-26T10:37:49Z</time>
      </trkpt>
      <trkpt lat="48.08546" lon="-4.18421">
        <ele>130</ele>
        <time>2015-02-26T10:37:49Z</time>
      </trkpt>
      <trkpt lat="48.08569" lon="-4.18442">
        <ele>131</ele>
        <time>2015-02-26T10:37:49Z</time>
      </trkpt>
      <trkpt lat="48.08594" lon="-4.18462">
        <ele>136</ele>
        <time>2015-02-26T10:37:49Z</time>
      </trkpt>
      <trkpt lat="48.08604" lon="-4.18469">
        <ele>137</ele>
        <time>2015-02-26T10:37:49Z</time>
      </trkpt>
      <trkpt lat="48.08609" lon="-4.18443">
        <ele>138</ele>
        <time>2015-02-26T10:37:49Z</time>
      </trkpt>
      <trkpt lat="48.08616" lon="-4.18402">
        <ele>141</ele>
        <time>2015-02-26T10:37:49Z</time>
      </trkpt>
      <trkpt lat="48.08622" lon="-4.18361">
        <ele>142</ele>
        <time>2015-02-26T10:37:49Z</time>
      </trkpt>
      <trkpt lat="48.08622" lon="-4.18339">
        <ele>143</ele>
        <time>2015-02-26T10:37:49Z</time>
      </trkpt>
      <trkpt lat="48.08621" lon="-4.18297">
        <ele>144</ele>
        <time>2015-02-26T10:37:49Z</time>
      </trkpt>
      <trkpt lat="48.0862" lon="-4.18253">
        <ele>144</ele>
        <time>2015-02-26T10:37:49Z</time>
      </trkpt>
      <trkpt lat="48.0862" lon="-4.1821">
        <ele>146</ele>
        <time>2015-02-26T10:37:49Z</time>
      </trkpt>
      <trkpt lat="48.08619" lon="-4.18166">
        <ele>147</ele>
        <time>2015-02-26T10:37:49Z</time>
      </trkpt>
      <trkpt lat="48.08619" lon="-4.18139">
        <ele>148</ele>
        <time>2015-02-26T10:37:49Z</time>
      </trkpt>
      <trkpt lat="48.08622" lon="-4.18095">
        <ele>148</ele>
        <time>2015-02-26T10:37:49Z</time>
      </trkpt>
      <trkpt lat="48.08626" lon="-4.18051">
        <ele>149</ele>
        <time>2015-02-26T10:37:49Z</time>
      </trkpt>
      <trkpt lat="48.0863" lon="-4.18011">
        <ele>149</ele>
        <time>2015-02-26T10:37:49Z</time>
      </trkpt>
      <trkpt lat="48.08633" lon="-4.17994">
        <ele>148</ele>
        <time>2015-02-26T10:37:49Z</time>
      </trkpt>
      <trkpt lat="48.08645" lon="-4.17976">
        <ele>149</ele>
        <time>2015-02-26T10:37:49Z</time>
      </trkpt>
      <trkpt lat="48.08656" lon="-4.17965">
        <ele>149</ele>
        <time>2015-02-26T10:37:49Z</time>
      </trkpt>
      <trkpt lat="48.08674" lon="-4.1796">
        <ele>157</ele>
        <time>2015-02-26T10:37:49Z</time>
      </trkpt>
      <trkpt lat="48.08693" lon="-4.17957">
        <ele>157</ele>
        <time>2015-02-26T10:37:49Z</time>
      </trkpt>
      <trkpt lat="48.08717" lon="-4.17958">
        <ele>159</ele>
        <time>2015-02-26T10:37:49Z</time>
      </trkpt>
      <trkpt lat="48.08731" lon="-4.17959">
        <ele>159</ele>
        <time>2015-02-26T10:37:49Z</time>
      </trkpt>
      <trkpt lat="48.08741" lon="-4.17967">
        <ele>160</ele>
        <time>2015-02-26T10:37:49Z</time>
      </trkpt>
      <trkpt lat="48.08749" lon="-4.1798">
        <ele>162</ele>
        <time>2015-02-26T10:37:49Z</time>
      </trkpt>
      <trkpt lat="48.08753" lon="-4.18008">
        <ele>166</ele>
        <time>2015-02-26T10:37:49Z</time>
      </trkpt>
      <trkpt lat="48.08754" lon="-4.18053">
        <ele>167</ele>
        <time>2015-02-26T10:37:49Z</time>
      </trkpt>
      <trkpt lat="48.08756" lon="-4.181">
        <ele>168</ele>
        <time>2015-02-26T10:37:49Z</time>
      </trkpt>
      <trkpt lat="48.08759" lon="-4.18148">
        <ele>168</ele>
        <time>2015-02-26T10:37:49Z</time>
      </trkpt>
      <trkpt lat="48.08762" lon="-4.18197">
        <ele>168</ele>
        <time>2015-02-26T10:37:49Z</time>
      </trkpt>
      <trkpt lat="48.08765" lon="-4.18244">
        <ele>167</ele>
        <time>2015-02-26T10:37:49Z</time>
      </trkpt>
      <trkpt lat="48.08767" lon="-4.18256">
        <ele>167</ele>
        <time>2015-02-26T10:37:49Z</time>
      </trkpt>
      <trkpt lat="48.08772" lon="-4.18263">
        <ele>167</ele>
        <time>2015-02-26T10:37:49Z</time>
      </trkpt>
      <trkpt lat="48.08782" lon="-4.18269">
        <ele>168</ele>
        <time>2015-02-26T10:37:49Z</time>
      </trkpt>
      <trkpt lat="48.08796" lon="-4.18273">
        <ele>168</ele>
        <time>2015-02-26T10:37:49Z</time>
      </trkpt>
      <trkpt lat="48.0882" lon="-4.18276">
        <ele>169</ele>
        <time>2015-02-26T10:37:49Z</time>
      </trkpt>
      <trkpt lat="48.08848" lon="-4.18282">
        <ele>173</ele>
        <time>2015-02-26T10:37:49Z</time>
      </trkpt>
      <trkpt lat="48.08875" lon="-4.18288">
        <ele>173</ele>
        <time>2015-02-26T10:37:49Z</time>
      </trkpt>
      <trkpt lat="48.08903" lon="-4.18296">
        <ele>174</ele>
        <time>2015-02-26T10:37:49Z</time>
      </trkpt>
      <trkpt lat="48.08931" lon="-4.18302">
        <ele>179</ele>
        <time>2015-02-26T10:37:49Z</time>
      </trkpt>
      <trkpt lat="48.08937" lon="-4.18302">
        <ele>179</ele>
        <time>2015-02-26T10:37:49Z</time>
      </trkpt>
      <trkpt lat="48.08942" lon="-4.18255">
        <ele>179</ele>
        <time>2015-02-26T10:37:49Z</time>
      </trkpt>
      <trkpt lat="48.08947" lon="-4.18216">
        <ele>178</ele>
        <time>2015-02-26T10:37:49Z</time>
      </trkpt>
      <trkpt lat="48.08927" lon="-4.18182">
        <ele>176</ele>
        <time>2015-02-26T10:37:49Z</time>
      </trkpt>
      <trkpt lat="48.08906" lon="-4.18147">
        <ele>170</ele>
        <time>2015-02-26T10:37:49Z</time>
      </trkpt>
      <trkpt lat="48.08897" lon="-4.18132">
        <ele>170</ele>
        <time>2015-02-26T10:37:49Z</time>
      </trkpt>
      <trkpt lat="48.08894" lon="-4.18122">
        <ele>170</ele>
        <time>2015-02-26T10:37:49Z</time>
      </trkpt>
      <trkpt lat="48.08895" lon="-4.18091">
        <ele>169</ele>
        <time>2015-02-26T10:37:49Z</time>
      </trkpt>
      <trkpt lat="48.08896" lon="-4.18053">
        <ele>166</ele>
        <time>2015-02-26T10:37:49Z</time>
      </trkpt>
      <trkpt lat="48.08897" lon="-4.18016">
        <ele>165</ele>
        <time>2015-02-26T10:37:49Z</time>
      </trkpt>
      <trkpt lat="48.08899" lon="-4.17974">
        <ele>163</ele>
        <time>2015-02-26T10:37:49Z</time>
      </trkpt>
      <trkpt lat="48.08901" lon="-4.17929">
        <ele>162</ele>
        <time>2015-02-26T10:37:49Z</time>
      </trkpt>
      <trkpt lat="48.08903" lon="-4.17882">
        <ele>160</ele>
        <time>2015-02-26T10:37:49Z</time>
      </trkpt>
      <trkpt lat="48.08905" lon="-4.17846">
        <ele>159</ele>
        <time>2015-02-26T10:37:49Z</time>
      </trkpt>
      <trkpt lat="48.08908" lon="-4.17845">
        <ele>159</ele>
        <time>2015-02-26T10:37:49Z</time>
      </trkpt>
      <trkpt lat="48.08921" lon="-4.17864">
        <ele>160</ele>
        <time>2015-02-26T10:37:49Z</time>
      </trkpt>
      <trkpt lat="48.08938" lon="-4.17888">
        <ele>161</ele>
        <time>2015-02-26T10:37:49Z</time>
      </trkpt>
      <trkpt lat="48.08956" lon="-4.1791">
        <ele>161</ele>
        <time>2015-02-26T10:37:49Z</time>
      </trkpt>
      <trkpt lat="48.08969" lon="-4.17923">
        <ele>164</ele>
        <time>2015-02-26T10:37:49Z</time>
      </trkpt>
      <trkpt lat="48.08983" lon="-4.17931">
        <ele>164</ele>
        <time>2015-02-26T10:37:49Z</time>
      </trkpt>
      <trkpt lat="48.09002" lon="-4.17941">
        <ele>167</ele>
        <time>2015-02-26T10:37:49Z</time>
      </trkpt>
      <trkpt lat="48.09023" lon="-4.1795">
        <ele>169</ele>
        <time>2015-02-26T10:37:49Z</time>
      </trkpt>
      <trkpt lat="48.09044" lon="-4.1796">
        <ele>170</ele>
        <time>2015-02-26T10:37:49Z</time>
      </trkpt>
      <trkpt lat="48.09065" lon="-4.17969">
        <ele>171</ele>
        <time>2015-02-26T10:37:49Z</time>
      </trkpt>
      <trkpt lat="48.09087" lon="-4.1798">
        <ele>176</ele>
        <time>2015-02-26T10:37:49Z</time>
      </trkpt>
      <trkpt lat="48.09099" lon="-4.17985">
        <ele>177</ele>
        <time>2015-02-26T10:37:49Z</time>
      </trkpt>
      <trkpt lat="48.09113" lon="-4.1799">
        <ele>178</ele>
        <time>2015-02-26T10:37:49Z</time>
      </trkpt>
      <trkpt lat="48.09123" lon="-4.17992">
        <ele>179</ele>
        <time>2015-02-26T10:37:49Z</time>
      </trkpt>
      <trkpt lat="48.09135" lon="-4.17991">
        <ele>180</ele>
        <time>2015-02-26T10:37:49Z</time>
      </trkpt>
      <trkpt lat="48.09145" lon="-4.17987">
        <ele>181</ele>
        <time>2015-02-26T10:37:49Z</time>
      </trkpt>
      <trkpt lat="48.0915" lon="-4.17985">
        <ele>181</ele>
        <time>2015-02-26T10:37:49Z</time>
      </trkpt>
      <trkpt lat="48.09157" lon="-4.17984">
        <ele>182</ele>
        <time>2015-02-26T10:37:49Z</time>
      </trkpt>
      <trkpt lat="48.09157" lon="-4.17991">
        <ele>183</ele>
        <time>2015-02-26T10:37:49Z</time>
      </trkpt>
      <trkpt lat="48.09154" lon="-4.18008">
        <ele>186</ele>
        <time>2015-02-26T10:37:49Z</time>
      </trkpt>
      <trkpt lat="48.0915" lon="-4.18021">
        <ele>185</ele>
        <time>2015-02-26T10:37:49Z</time>
      </trkpt>
      <trkpt lat="48.09147" lon="-4.18035">
        <ele>185</ele>
        <time>2015-02-26T10:37:49Z</time>
      </trkpt>
      <trkpt lat="48.09145" lon="-4.18048">
        <ele>186</ele>
        <time>2015-02-26T10:37:49Z</time>
      </trkpt>
      <trkpt lat="48.09144" lon="-4.18062">
        <ele>186</ele>
        <time>2015-02-26T10:37:49Z</time>
      </trkpt>
      <trkpt lat="48.09145" lon="-4.18085">
        <ele>190</ele>
        <time>2015-02-26T10:37:49Z</time>
      </trkpt>
      <trkpt lat="48.09149" lon="-4.1812">
        <ele>190</ele>
        <time>2015-02-26T10:37:49Z</time>
      </trkpt>
      <trkpt lat="48.09153" lon="-4.18157">
        <ele>192</ele>
        <time>2015-02-26T10:37:49Z</time>
      </trkpt>
      <trkpt lat="48.09156" lon="-4.18195">
        <ele>194</ele>
        <time>2015-02-26T10:37:49Z</time>
      </trkpt>
      <trkpt lat="48.0916" lon="-4.18233">
        <ele>196</ele>
        <time>2015-02-26T10:37:49Z</time>
      </trkpt>
      <trkpt lat="48.09163" lon="-4.1827">
        <ele>198</ele>
        <time>2015-02-26T10:37:49Z</time>
      </trkpt>
      <trkpt lat="48.09167" lon="-4.18309">
        <ele>202</ele>
        <time>2015-02-26T10:37:49Z</time>
      </trkpt>
      <trkpt lat="48.09171" lon="-4.18356">
        <ele>204</ele>
        <time>2015-02-26T10:37:49Z</time>
      </trkpt>
      <trkpt lat="48.09175" lon="-4.18398">
        <ele>206</ele>
        <time>2015-02-26T10:37:49Z</time>
      </trkpt>
      <trkpt lat="48.09181" lon="-4.18441">
        <ele>210</ele>
        <time>2015-02-26T10:37:49Z</time>
      </trkpt>
      <trkpt lat="48.09187" lon="-4.18481">
        <ele>212</ele>
        <time>2015-02-26T10:37:49Z</time>
      </trkpt>
      <trkpt lat="48.09195" lon="-4.1852">
        <ele>215</ele>
        <time>2015-02-26T10:37:49Z</time>
      </trkpt>
      <trkpt lat="48.09203" lon="-4.18558">
        <ele>216</ele>
        <time>2015-02-26T10:37:49Z</time>
      </trkpt>
      <trkpt lat="48.09212" lon="-4.18596">
        <ele>218</ele>
        <time>2015-02-26T10:37:49Z</time>
      </trkpt>
      <trkpt lat="48.09217" lon="-4.18618">
        <ele>218</ele>
        <time>2015-02-26T10:37:49Z</time>
      </trkpt>
      <trkpt lat="48.09231" lon="-4.18641">
        <ele>218</ele>
        <time>2015-02-26T10:37:49Z</time>
      </trkpt>
      <trkpt lat="48.09248" lon="-4.18665">
        <ele>219</ele>
        <time>2015-02-26T10:37:49Z</time>
      </trkpt>
      <trkpt lat="48.09265" lon="-4.18692">
        <ele>219</ele>
        <time>2015-02-26T10:37:49Z</time>
      </trkpt>
      <trkpt lat="48.09282" lon="-4.18718">
        <ele>219</ele>
        <time>2015-02-26T10:37:49Z</time>
      </trkpt>
      <trkpt lat="48.09292" lon="-4.18736">
        <ele>220</ele>
        <time>2015-02-26T10:37:49Z</time>
      </trkpt>
      <trkpt lat="48.09306" lon="-4.18763">
        <ele>219</ele>
        <time>2015-02-26T10:37:49Z</time>
      </trkpt>
      <trkpt lat="48.0932" lon="-4.18789">
        <ele>219</ele>
        <time>2015-02-26T10:37:49Z</time>
      </trkpt>
      <trkpt lat="48.0933" lon="-4.18806">
        <ele>219</ele>
        <time>2015-02-26T10:37:49Z</time>
      </trkpt>
      <trkpt lat="48.09346" lon="-4.18839">
        <ele>223</ele>
        <time>2015-02-26T10:37:49Z</time>
      </trkpt>
      <trkpt lat="48.0936" lon="-4.1888">
        <ele>224</ele>
        <time>2015-02-26T10:37:49Z</time>
      </trkpt>
      <trkpt lat="48.09377" lon="-4.18919">
        <ele>224</ele>
        <time>2015-02-26T10:37:49Z</time>
      </trkpt>
      <trkpt lat="48.09396" lon="-4.18956">
        <ele>225</ele>
        <time>2015-02-26T10:37:49Z</time>
      </trkpt>
      <trkpt lat="48.09414" lon="-4.18993">
        <ele>227</ele>
        <time>2015-02-26T10:37:49Z</time>
      </trkpt>
      <trkpt lat="48.09432" lon="-4.1903">
        <ele>229</ele>
        <time>2015-02-26T10:37:49Z</time>
      </trkpt>
      <trkpt lat="48.09451" lon="-4.19067">
        <ele>229</ele>
        <time>2015-02-26T10:37:49Z</time>
      </trkpt>
      <trkpt lat="48.09469" lon="-4.19105">
        <ele>228</ele>
        <time>2015-02-26T10:37:49Z</time>
      </trkpt>
      <trkpt lat="48.0948" lon="-4.19132">
        <ele>228</ele>
        <time>2015-02-26T10:37:49Z</time>
      </trkpt>
      <trkpt lat="48.09498" lon="-4.19154">
        <ele>228</ele>
        <time>2015-02-26T10:37:49Z</time>
      </trkpt>
      <trkpt lat="48.09518" lon="-4.1918">
        <ele>228</ele>
        <time>2015-02-26T10:37:49Z</time>
      </trkpt>
      <trkpt lat="48.0953" lon="-4.19197">
        <ele>227</ele>
        <time>2015-02-26T10:37:49Z</time>
      </trkpt>
      <trkpt lat="48.09531" lon="-4.19206">
        <ele>227</ele>
        <time>2015-02-26T10:37:49Z</time>
      </trkpt>
      <trkpt lat="48.09529" lon="-4.1922">
        <ele>227</ele>
        <time>2015-02-26T10:37:49Z</time>
      </trkpt>
      <trkpt lat="48.09517" lon="-4.19255">
        <ele>226</ele>
        <time>2015-02-26T10:37:49Z</time>
      </trkpt>
      <trkpt lat="48.09516" lon="-4.19269">
        <ele>226</ele>
        <time>2015-02-26T10:37:49Z</time>
      </trkpt>
      <trkpt lat="48.09533" lon="-4.19299">
        <ele>226</ele>
        <time>2015-02-26T10:37:49Z</time>
      </trkpt>
      <trkpt lat="48.09549" lon="-4.19332">
        <ele>225</ele>
        <time>2015-02-26T10:37:49Z</time>
      </trkpt>
      <trkpt lat="48.09564" lon="-4.19365">
        <ele>224</ele>
        <time>2015-02-26T10:37:49Z</time>
      </trkpt>
      <trkpt lat="48.09579" lon="-4.19398">
        <ele>223</ele>
        <time>2015-02-26T10:37:49Z</time>
      </trkpt>
      <trkpt lat="48.09595" lon="-4.19431">
        <ele>218</ele>
        <time>2015-02-26T10:37:49Z</time>
      </trkpt>
      <trkpt lat="48.09611" lon="-4.1946">
        <ele>215</ele>
        <time>2015-02-26T10:37:49Z</time>
      </trkpt>
      <trkpt lat="48.09613" lon="-4.19469">
        <ele>215</ele>
        <time>2015-02-26T10:37:49Z</time>
      </trkpt>
      <trkpt lat="48.09604" lon="-4.1951">
        <ele>213</ele>
        <time>2015-02-26T10:37:49Z</time>
      </trkpt>
      <trkpt lat="48.09596" lon="-4.19551">
        <ele>211</ele>
        <time>2015-02-26T10:37:49Z</time>
      </trkpt>
      <trkpt lat="48.09587" lon="-4.19592">
        <ele>209</ele>
        <time>2015-02-26T10:37:49Z</time>
      </trkpt>
      <trkpt lat="48.0958" lon="-4.19634">
        <ele>212</ele>
        <time>2015-02-26T10:37:49Z</time>
      </trkpt>
      <trkpt lat="48.09572" lon="-4.19676">
        <ele>208</ele>
        <time>2015-02-26T10:37:49Z</time>
      </trkpt>
      <trkpt lat="48.09567" lon="-4.19702">
        <ele>208</ele>
        <time>2015-02-26T10:37:49Z</time>
      </trkpt>
      <trkpt lat="48.09567" lon="-4.19716">
        <ele>207</ele>
        <time>2015-02-26T10:37:49Z</time>
      </trkpt>
      <trkpt lat="48.09566" lon="-4.19749">
        <ele>204</ele>
        <time>2015-02-26T10:37:49Z</time>
      </trkpt>
      <trkpt lat="48.09564" lon="-4.19755">
        <ele>202</ele>
        <time>2015-02-26T10:37:49Z</time>
      </trkpt>
      <trkpt lat="48.09558" lon="-4.19762">
        <ele>203</ele>
        <time>2015-02-26T10:37:49Z</time>
      </trkpt>
      <trkpt lat="48.09553" lon="-4.19776">
        <ele>203</ele>
        <time>2015-02-26T10:37:49Z</time>
      </trkpt>
      <trkpt lat="48.09549" lon="-4.19795">
        <ele>203</ele>
        <time>2015-02-26T10:37:49Z</time>
      </trkpt>
      <trkpt lat="48.09543" lon="-4.19813">
        <ele>204</ele>
        <time>2015-02-26T10:37:49Z</time>
      </trkpt>
      <trkpt lat="48.09537" lon="-4.19827">
        <ele>204</ele>
        <time>2015-02-26T10:37:49Z</time>
      </trkpt>
      <trkpt lat="48.09526" lon="-4.19839">
        <ele>204</ele>
        <time>2015-02-26T10:37:49Z</time>
      </trkpt>
      <trkpt lat="48.09511" lon="-4.19851">
        <ele>206</ele>
        <time>2015-02-26T10:37:49Z</time>
      </trkpt>
      <trkpt lat="48.09495" lon="-4.19866">
        <ele>212</ele>
        <time>2015-02-26T10:37:49Z</time>
      </trkpt>
      <trkpt lat="48.09479" lon="-4.19882">
        <ele>212</ele>
        <time>2015-02-26T10:37:49Z</time>
      </trkpt>
      <trkpt lat="48.09463" lon="-4.19899">
        <ele>212</ele>
        <time>2015-02-26T10:37:49Z</time>
      </trkpt>
      <trkpt lat="48.0946" lon="-4.19909">
        <ele>212</ele>
        <time>2015-02-26T10:37:49Z</time>
      </trkpt>
      <trkpt lat="48.0946" lon="-4.19919">
        <ele>213</ele>
        <time>2015-02-26T10:37:49Z</time>
      </trkpt>
      <trkpt lat="48.09468" lon="-4.19931">
        <ele>212</ele>
        <time>2015-02-26T10:37:49Z</time>
      </trkpt>
      <trkpt lat="48.09482" lon="-4.19959">
        <ele>213</ele>
        <time>2015-02-26T10:37:49Z</time>
      </trkpt>
      <trkpt lat="48.09496" lon="-4.19988">
        <ele>212</ele>
        <time>2015-02-26T10:37:49Z</time>
      </trkpt>
      <trkpt lat="48.09508" lon="-4.20012">
        <ele>209</ele>
        <time>2015-02-26T10:37:49Z</time>
      </trkpt>
      <trkpt lat="48.09508" lon="-4.2002">
        <ele>209</ele>
        <time>2015-02-26T10:37:49Z</time>
      </trkpt>
      <trkpt lat="48.09502" lon="-4.2004">
        <ele>210</ele>
        <time>2015-02-26T10:37:49Z</time>
      </trkpt>
      <trkpt lat="48.09497" lon="-4.20061">
        <ele>221</ele>
        <time>2015-02-26T10:37:49Z</time>
      </trkpt>
      <trkpt lat="48.09492" lon="-4.20082">
        <ele>222</ele>
        <time>2015-02-26T10:37:49Z</time>
      </trkpt>
      <trkpt lat="48.09486" lon="-4.20103">
        <ele>225</ele>
        <time>2015-02-26T10:37:49Z</time>
      </trkpt>
      <trkpt lat="48.09481" lon="-4.20124">
        <ele>227</ele>
        <time>2015-02-26T10:37:49Z</time>
      </trkpt>
      <trkpt lat="48.09476" lon="-4.20145">
        <ele>227</ele>
        <time>2015-02-26T10:37:49Z</time>
      </trkpt>
      <trkpt lat="48.09471" lon="-4.20166">
        <ele>228</ele>
        <time>2015-02-26T10:37:49Z</time>
      </trkpt>
      <trkpt lat="48.09466" lon="-4.20187">
        <ele>229</ele>
        <time>2015-02-26T10:37:49Z</time>
      </trkpt>
      <trkpt lat="48.0946" lon="-4.20209">
        <ele>229</ele>
        <time>2015-02-26T10:37:49Z</time>
      </trkpt>
      <trkpt lat="48.09455" lon="-4.2023">
        <ele>229</ele>
        <time>2015-02-26T10:37:49Z</time>
      </trkpt>
      <trkpt lat="48.09449" lon="-4.20252">
        <ele>228</ele>
        <time>2015-02-26T10:37:49Z</time>
      </trkpt>
      <trkpt lat="48.09443" lon="-4.20274">
        <ele>228</ele>
        <time>2015-02-26T10:37:49Z</time>
      </trkpt>
      <trkpt lat="48.09438" lon="-4.20295">
        <ele>228</ele>
        <time>2015-02-26T10:37:49Z</time>
      </trkpt>
      <trkpt lat="48.09432" lon="-4.20317">
        <ele>227</ele>
        <time>2015-02-26T10:37:49Z</time>
      </trkpt>
      <trkpt lat="48.09426" lon="-4.20339">
        <ele>225</ele>
        <time>2015-02-26T10:37:49Z</time>
      </trkpt>
      <trkpt lat="48.09421" lon="-4.2036">
        <ele>225</ele>
        <time>2015-02-26T10:37:49Z</time>
      </trkpt>
      <trkpt lat="48.09415" lon="-4.20382">
        <ele>221</ele>
        <time>2015-02-26T10:37:49Z</time>
      </trkpt>
      <trkpt lat="48.0941" lon="-4.20404">
        <ele>221</ele>
        <time>2015-02-26T10:37:49Z</time>
      </trkpt>
      <trkpt lat="48.09404" lon="-4.20425">
        <ele>218</ele>
        <time>2015-02-26T10:37:49Z</time>
      </trkpt>
      <trkpt lat="48.09398" lon="-4.20447">
        <ele>216</ele>
        <time>2015-02-26T10:37:49Z</time>
      </trkpt>
      <trkpt lat="48.09392" lon="-4.2047">
        <ele>215</ele>
        <time>2015-02-26T10:37:49Z</time>
      </trkpt>
      <trkpt lat="48.09387" lon="-4.20494">
        <ele>215</ele>
        <time>2015-02-26T10:37:49Z</time>
      </trkpt>
      <trkpt lat="48.09381" lon="-4.20518">
        <ele>210</ele>
        <time>2015-02-26T10:37:49Z</time>
      </trkpt>
      <trkpt lat="48.09375" lon="-4.20542">
        <ele>208</ele>
        <time>2015-02-26T10:37:49Z</time>
      </trkpt>
      <trkpt lat="48.0937" lon="-4.20567">
        <ele>207</ele>
        <time>2015-02-26T10:37:49Z</time>
      </trkpt>
      <trkpt lat="48.09364" lon="-4.20591">
        <ele>203</ele>
        <time>2015-02-26T10:37:49Z</time>
      </trkpt>
      <trkpt lat="48.09358" lon="-4.20615">
        <ele>202</ele>
        <time>2015-02-26T10:37:49Z</time>
      </trkpt>
      <trkpt lat="48.09352" lon="-4.20639">
        <ele>202</ele>
        <time>2015-02-26T10:37:49Z</time>
      </trkpt>
      <trkpt lat="48.09345" lon="-4.20664">
        <ele>200</ele>
        <time>2015-02-26T10:37:49Z</time>
      </trkpt>
      <trkpt lat="48.09342" lon="-4.20676">
        <ele>199</ele>
        <time>2015-02-26T10:37:49Z</time>
      </trkpt>
      <trkpt lat="48.09342" lon="-4.20687">
        <ele>199</ele>
        <time>2015-02-26T10:37:49Z</time>
      </trkpt>
      <trkpt lat="48.09359" lon="-4.20708">
        <ele>198</ele>
        <time>2015-02-26T10:37:49Z</time>
      </trkpt>
      <trkpt lat="48.09368" lon="-4.20721">
        <ele>198</ele>
        <time>2015-02-26T10:37:49Z</time>
      </trkpt>
      <trkpt lat="48.09376" lon="-4.20733">
        <ele>198</ele>
        <time>2015-02-26T10:37:49Z</time>
      </trkpt>
      <trkpt lat="48.09378" lon="-4.20742">
        <ele>198</ele>
        <time>2015-02-26T10:37:49Z</time>
      </trkpt>
      <trkpt lat="48.09375" lon="-4.20762">
        <ele>196</ele>
        <time>2015-02-26T10:37:49Z</time>
      </trkpt>
      <trkpt lat="48.09373" lon="-4.20789">
        <ele>195</ele>
        <time>2015-02-26T10:37:49Z</time>
      </trkpt>
      <trkpt lat="48.0937" lon="-4.20816">
        <ele>194</ele>
        <time>2015-02-26T10:37:49Z</time>
      </trkpt>
      <trkpt lat="48.09368" lon="-4.20843">
        <ele>191</ele>
        <time>2015-02-26T10:37:49Z</time>
      </trkpt>
      <trkpt lat="48.09366" lon="-4.20869">
        <ele>190</ele>
        <time>2015-02-26T10:37:49Z</time>
      </trkpt>
      <trkpt lat="48.09363" lon="-4.20896">
        <ele>189</ele>
        <time>2015-02-26T10:37:49Z</time>
      </trkpt>
      <trkpt lat="48.09361" lon="-4.20923">
        <ele>183</ele>
        <time>2015-02-26T10:37:49Z</time>
      </trkpt>
      <trkpt lat="48.0936" lon="-4.20937">
        <ele>183</ele>
        <time>2015-02-26T10:37:49Z</time>
      </trkpt>
      <trkpt lat="48.09368" lon="-4.20958">
        <ele>182</ele>
        <time>2015-02-26T10:37:49Z</time>
      </trkpt>
      <trkpt lat="48.09368" lon="-4.20966">
        <ele>182</ele>
        <time>2015-02-26T10:37:49Z</time>
      </trkpt>
      <trkpt lat="48.0936" lon="-4.20975">
        <ele>181</ele>
        <time>2015-02-26T10:37:49Z</time>
      </trkpt>
      <trkpt lat="48.0934" lon="-4.20981">
        <ele>179</ele>
        <time>2015-02-26T10:37:49Z</time>
      </trkpt>
      <trkpt lat="48.09328" lon="-4.20987">
        <ele>176</ele>
        <time>2015-02-26T10:37:49Z</time>
      </trkpt>
      <trkpt lat="48.09324" lon="-4.20997">
        <ele>176</ele>
        <time>2015-02-26T10:37:49Z</time>
      </trkpt>
      <trkpt lat="48.0932" lon="-4.2103">
        <ele>171</ele>
        <time>2015-02-26T10:37:49Z</time>
      </trkpt>
      <trkpt lat="48.09317" lon="-4.21058">
        <ele>169</ele>
        <time>2015-02-26T10:37:49Z</time>
      </trkpt>
      <trkpt lat="48.09312" lon="-4.21086">
        <ele>165</ele>
        <time>2015-02-26T10:37:49Z</time>
      </trkpt>
      <trkpt lat="48.09308" lon="-4.21114">
        <ele>164</ele>
        <time>2015-02-26T10:37:49Z</time>
      </trkpt>
      <trkpt lat="48.09302" lon="-4.21148">
        <ele>163</ele>
        <time>2015-02-26T10:37:49Z</time>
      </trkpt>
      <trkpt lat="48.093" lon="-4.21169">
        <ele>162</ele>
        <time>2015-02-26T10:37:49Z</time>
      </trkpt>
      <trkpt lat="48.09307" lon="-4.21181">
        <ele>162</ele>
        <time>2015-02-26T10:37:49Z</time>
      </trkpt>
      <trkpt lat="48.0932" lon="-4.21196">
        <ele>162</ele>
        <time>2015-02-26T10:37:49Z</time>
      </trkpt>
      <trkpt lat="48.09333" lon="-4.21211">
        <ele>162</ele>
        <time>2015-02-26T10:37:49Z</time>
      </trkpt>
      <trkpt lat="48.09347" lon="-4.21226">
        <ele>162</ele>
        <time>2015-02-26T10:37:49Z</time>
      </trkpt>
      <trkpt lat="48.09361" lon="-4.21243">
        <ele>162</ele>
        <time>2015-02-26T10:37:49Z</time>
      </trkpt>
      <trkpt lat="48.09375" lon="-4.2126">
        <ele>162</ele>
        <time>2015-02-26T10:37:49Z</time>
      </trkpt>
      <trkpt lat="48.09384" lon="-4.21271">
        <ele>162</ele>
        <time>2015-02-26T10:37:49Z</time>
      </trkpt>
      <trkpt lat="48.09383" lon="-4.21281">
        <ele>162</ele>
        <time>2015-02-26T10:37:49Z</time>
      </trkpt>
      <trkpt lat="48.09382" lon="-4.2129">
        <ele>162</ele>
        <time>2015-02-26T10:37:49Z</time>
      </trkpt>
      <trkpt lat="48.09379" lon="-4.21296">
        <ele>162</ele>
        <time>2015-02-26T10:37:49Z</time>
      </trkpt>
      <trkpt lat="48.09372" lon="-4.21301">
        <ele>162</ele>
        <time>2015-02-26T10:37:49Z</time>
      </trkpt>
      <trkpt lat="48.09362" lon="-4.21305">
        <ele>162</ele>
        <time>2015-02-26T10:37:49Z</time>
      </trkpt>
      <trkpt lat="48.09347" lon="-4.21309">
        <ele>162</ele>
        <time>2015-02-26T10:37:49Z</time>
      </trkpt>
      <trkpt lat="48.09333" lon="-4.21313">
        <ele>163</ele>
        <time>2015-02-26T10:37:49Z</time>
      </trkpt>
      <trkpt lat="48.09319" lon="-4.21318">
        <ele>162</ele>
        <time>2015-02-26T10:37:49Z</time>
      </trkpt>
      <trkpt lat="48.09305" lon="-4.21324">
        <ele>162</ele>
        <time>2015-02-26T10:37:49Z</time>
      </trkpt>
      <trkpt lat="48.09301" lon="-4.21328">
        <ele>162</ele>
        <time>2015-02-26T10:37:49Z</time>
      </trkpt>
      <trkpt lat="48.093" lon="-4.21335">
        <ele>163</ele>
        <time>2015-02-26T10:37:49Z</time>
      </trkpt>
      <trkpt lat="48.09299" lon="-4.21347">
        <ele>163</ele>
        <time>2015-02-26T10:37:49Z</time>
      </trkpt>
      <trkpt lat="48.09307" lon="-4.21374">
        <ele>163</ele>
        <time>2015-02-26T10:37:49Z</time>
      </trkpt>
      <trkpt lat="48.0931" lon="-4.21388">
        <ele>164</ele>
        <time>2015-02-26T10:37:49Z</time>
      </trkpt>
      <trkpt lat="48.09311" lon="-4.21407">
        <ele>164</ele>
        <time>2015-02-26T10:37:49Z</time>
      </trkpt>
      <trkpt lat="48.09311" lon="-4.21426">
        <ele>164</ele>
        <time>2015-02-26T10:37:49Z</time>
      </trkpt>
      <trkpt lat="48.09312" lon="-4.21438">
        <ele>164</ele>
        <time>2015-02-26T10:37:49Z</time>
      </trkpt>
      <trkpt lat="48.09315" lon="-4.21451">
        <ele>163</ele>
        <time>2015-02-26T10:37:49Z</time>
      </trkpt>
      <trkpt lat="48.09317" lon="-4.21465">
        <ele>163</ele>
        <time>2015-02-26T10:37:49Z</time>
      </trkpt>
      <trkpt lat="48.09315" lon="-4.21494">
        <ele>163</ele>
        <time>2015-02-26T10:37:49Z</time>
      </trkpt>
      <trkpt lat="48.09312" lon="-4.21531">
        <ele>161</ele>
        <time>2015-02-26T10:37:49Z</time>
      </trkpt>
      <trkpt lat="48.09306" lon="-4.21581">
        <ele>161</ele>
        <time>2015-02-26T10:37:49Z</time>
      </trkpt>
      <trkpt lat="48.09293" lon="-4.21628">
        <ele>160</ele>
        <time>2015-02-26T10:37:49Z</time>
      </trkpt>
      <trkpt lat="48.0929" lon="-4.21647">
        <ele>160</ele>
        <time>2015-02-26T10:37:49Z</time>
      </trkpt>
      <trkpt lat="48.09291" lon="-4.21667">
        <ele>160</ele>
        <time>2015-02-26T10:37:49Z</time>
      </trkpt>
      <trkpt lat="48.09299" lon="-4.217">
        <ele>160</ele>
        <time>2015-02-26T10:37:49Z</time>
      </trkpt>
      <trkpt lat="48.09307" lon="-4.21734">
        <ele>160</ele>
        <time>2015-02-26T10:37:49Z</time>
      </trkpt>
      <trkpt lat="48.09314" lon="-4.21769">
        <ele>160</ele>
        <time>2015-02-26T10:37:49Z</time>
      </trkpt>
      <trkpt lat="48.09319" lon="-4.2179">
        <ele>160</ele>
        <time>2015-02-26T10:37:49Z</time>
      </trkpt>
      <trkpt lat="48.09323" lon="-4.21824">
        <ele>161</ele>
        <time>2015-02-26T10:37:49Z</time>
      </trkpt>
      <trkpt lat="48.09326" lon="-4.21857">
        <ele>160</ele>
        <time>2015-02-26T10:37:49Z</time>
      </trkpt>
      <trkpt lat="48.09333" lon="-4.21891">
        <ele>159</ele>
        <time>2015-02-26T10:37:49Z</time>
      </trkpt>
      <trkpt lat="48.09339" lon="-4.21925">
        <ele>157</ele>
        <time>2015-02-26T10:37:49Z</time>
      </trkpt>
      <trkpt lat="48.09343" lon="-4.21946">
        <ele>157</ele>
        <time>2015-02-26T10:37:49Z</time>
      </trkpt>
      <trkpt lat="48.09344" lon="-4.21958">
        <ele>156</ele>
        <time>2015-02-26T10:37:49Z</time>
      </trkpt>
      <trkpt lat="48.09341" lon="-4.21971">
        <ele>156</ele>
        <time>2015-02-26T10:37:49Z</time>
      </trkpt>
      <trkpt lat="48.09322" lon="-4.22009">
        <ele>157</ele>
        <time>2015-02-26T10:37:49Z</time>
      </trkpt>
      <trkpt lat="48.09302" lon="-4.22045">
        <ele>156</ele>
        <time>2015-02-26T10:37:49Z</time>
      </trkpt>
      <trkpt lat="48.09282" lon="-4.22082">
        <ele>156</ele>
        <time>2015-02-26T10:37:49Z</time>
      </trkpt>
      <trkpt lat="48.09262" lon="-4.22118">
        <ele>155</ele>
        <time>2015-02-26T10:37:49Z</time>
      </trkpt>
      <trkpt lat="48.09246" lon="-4.22145">
        <ele>154</ele>
        <time>2015-02-26T10:37:49Z</time>
      </trkpt>
      <trkpt lat="48.09227" lon="-4.22171">
        <ele>153</ele>
        <time>2015-02-26T10:37:49Z</time>
      </trkpt>
      <trkpt lat="48.09208" lon="-4.22198">
        <ele>153</ele>
        <time>2015-02-26T10:37:49Z</time>
      </trkpt>
      <trkpt lat="48.09189" lon="-4.22226">
        <ele>154</ele>
        <time>2015-02-26T10:37:49Z</time>
      </trkpt>
      <trkpt lat="48.09169" lon="-4.22253">
        <ele>155</ele>
        <time>2015-02-26T10:37:49Z</time>
      </trkpt>
      <trkpt lat="48.09149" lon="-4.22281">
        <ele>154</ele>
        <time>2015-02-26T10:37:49Z</time>
      </trkpt>
      <trkpt lat="48.09127" lon="-4.2231">
        <ele>154</ele>
        <time>2015-02-26T10:37:49Z</time>
      </trkpt>
      <trkpt lat="48.09104" lon="-4.22336">
        <ele>153</ele>
        <time>2015-02-26T10:37:49Z</time>
      </trkpt>
      <trkpt lat="48.09081" lon="-4.22362">
        <ele>152</ele>
        <time>2015-02-26T10:37:49Z</time>
      </trkpt>
      <trkpt lat="48.09065" lon="-4.22379">
        <ele>151</ele>
        <time>2015-02-26T10:37:49Z</time>
      </trkpt>
      <trkpt lat="48.09047" lon="-4.22403">
        <ele>151</ele>
        <time>2015-02-26T10:37:49Z</time>
      </trkpt>
      <trkpt lat="48.09029" lon="-4.22436">
        <ele>151</ele>
        <time>2015-02-26T10:37:49Z</time>
      </trkpt>
      <trkpt lat="48.09014" lon="-4.22475">
        <ele>151</ele>
        <time>2015-02-26T10:37:49Z</time>
      </trkpt>
      <trkpt lat="48.08998" lon="-4.22516">
        <ele>149</ele>
        <time>2015-02-26T10:37:49Z</time>
      </trkpt>
      <trkpt lat="48.08986" lon="-4.22559">
        <ele>148</ele>
      </trkpt>
      <trkpt lat="48.08968" lon="-4.22597">
        <ele>146</ele>
        <time>2015-02-26T10:37:49Z</time>
      </trkpt>
      <trkpt lat="48.08957" lon="-4.22637">
        <ele>145</ele>
      </trkpt>
      <trkpt lat="48.08943" lon="-4.22676">
        <ele>142</ele>
      </trkpt>
      <trkpt lat="48.0893" lon="-4.22717">
        <ele>141</ele>
      </trkpt>
      <trkpt lat="48.08913" lon="-4.22763">
        <ele>137</ele>
      </trkpt>
      <trkpt lat="48.08888" lon="-4.22808">
        <ele>136</ele>
        <time>2015-02-26T10:37:49Z</time>
      </trkpt>
      <trkpt lat="48.08867" lon="-4.22857">
        <ele>136</ele>
        <time>2015-02-26T10:37:49Z</time>
      </trkpt>
      <trkpt lat="48.08859" lon="-4.2288">
        <ele>136</ele>
        <time>2015-02-26T10:37:49Z</time>
      </trkpt>
      <trkpt lat="48.08854" lon="-4.22898">
        <ele>137</ele>
        <time>2015-02-26T10:37:49Z</time>
      </trkpt>
      <trkpt lat="48.08861" lon="-4.22904">
        <ele>137</ele>
        <time>2015-02-26T10:37:49Z</time>
      </trkpt>
      <trkpt lat="48.08865" lon="-4.22916">
        <ele>137</ele>
        <time>2015-02-26T10:37:49Z</time>
      </trkpt>
      <trkpt lat="48.08864" lon="-4.22935">
        <ele>138</ele>
        <time>2015-02-26T10:37:49Z</time>
      </trkpt>
      <trkpt lat="48.08864" lon="-4.22959">
        <ele>138</ele>
        <time>2015-02-26T10:37:49Z</time>
      </trkpt>
      <trkpt lat="48.0887" lon="-4.22984">
        <ele>138</ele>
        <time>2015-02-26T10:37:49Z</time>
      </trkpt>
      <trkpt lat="48.08875" lon="-4.23014">
        <ele>138</ele>
        <time>2015-02-26T10:37:49Z</time>
      </trkpt>
      <trkpt lat="48.08871" lon="-4.23043">
        <ele>138</ele>
        <time>2015-02-26T10:37:49Z</time>
      </trkpt>
      <trkpt lat="48.08869" lon="-4.2306">
        <ele>138</ele>
        <time>2015-02-26T10:37:49Z</time>
      </trkpt>
      <trkpt lat="48.08855" lon="-4.23098">
        <ele>137</ele>
        <time>2015-02-26T10:37:49Z</time>
      </trkpt>
      <trkpt lat="48.08845" lon="-4.23137">
        <ele>137</ele>
        <time>2015-02-26T10:37:49Z</time>
      </trkpt>
      <trkpt lat="48.08829" lon="-4.23172">
        <ele>136</ele>
        <time>2015-02-26T10:37:49Z</time>
      </trkpt>
      <trkpt lat="48.08813" lon="-4.23208">
        <ele>135</ele>
        <time>2015-02-26T10:37:49Z</time>
      </trkpt>
      <trkpt lat="48.08807" lon="-4.23224">
        <ele>134</ele>
        <time>2015-02-26T10:37:49Z</time>
      </trkpt>
      <trkpt lat="48.08806" lon="-4.23246">
        <ele>134</ele>
        <time>2015-02-26T10:37:49Z</time>
      </trkpt>
      <trkpt lat="48.08814" lon="-4.23282">
        <ele>134</ele>
        <time>2015-02-26T10:37:49Z</time>
      </trkpt>
      <trkpt lat="48.08822" lon="-4.23318">
        <ele>134</ele>
        <time>2015-02-26T10:37:49Z</time>
      </trkpt>
      <trkpt lat="48.08827" lon="-4.2334">
        <ele>135</ele>
        <time>2015-02-26T10:37:49Z</time>
      </trkpt>
      <trkpt lat="48.08834" lon="-4.23373">
        <ele>136</ele>
        <time>2015-02-26T10:37:49Z</time>
      </trkpt>
      <trkpt lat="48.08838" lon="-4.23418">
        <ele>136</ele>
        <time>2015-02-26T10:37:49Z</time>
      </trkpt>
      <trkpt lat="48.08842" lon="-4.23467">
        <ele>137</ele>
        <time>2015-02-26T10:37:49Z</time>
      </trkpt>
      <trkpt lat="48.08847" lon="-4.23517">
        <ele>137</ele>
        <time>2015-02-26T10:37:49Z</time>
      </trkpt>
      <trkpt lat="48.08852" lon="-4.23571">
        <ele>137</ele>
        <time>2015-02-26T10:37:49Z</time>
      </trkpt>
      <trkpt lat="48.08856" lon="-4.23623">
        <ele>137</ele>
        <time>2015-02-26T10:37:49Z</time>
      </trkpt>
      <trkpt lat="48.08856" lon="-4.23674">
        <ele>136</ele>
        <time>2015-02-26T10:37:49Z</time>
      </trkpt>
      <trkpt lat="48.08858" lon="-4.23686">
        <ele>136</ele>
        <time>2015-02-26T10:37:49Z</time>
      </trkpt>
      <trkpt lat="48.08865" lon="-4.23707">
        <ele>136</ele>
        <time>2015-02-26T10:37:49Z</time>
      </trkpt>
      <trkpt lat="48.08874" lon="-4.23736">
        <ele>136</ele>
        <time>2015-02-26T10:37:49Z</time>
      </trkpt>
      <trkpt lat="48.08875" lon="-4.23753">
        <ele>136</ele>
        <time>2015-02-26T10:37:49Z</time>
      </trkpt>
      <trkpt lat="48.08881" lon="-4.23772">
        <ele>136</ele>
        <time>2015-02-26T10:37:49Z</time>
      </trkpt>
      <trkpt lat="48.08889" lon="-4.23788">
        <ele>136</ele>
        <time>2015-02-26T10:37:49Z</time>
      </trkpt>
      <trkpt lat="48.08901" lon="-4.23803">
        <ele>135</ele>
        <time>2015-02-26T10:37:49Z</time>
      </trkpt>
      <trkpt lat="48.08918" lon="-4.23828">
        <ele>135</ele>
        <time>2015-02-26T10:37:49Z</time>
      </trkpt>
      <trkpt lat="48.08923" lon="-4.23835">
        <ele>134</ele>
        <time>2015-02-26T10:37:49Z</time>
      </trkpt>
      <trkpt lat="48.08938" lon="-4.23851">
        <ele>133</ele>
        <time>2015-02-26T10:37:49Z</time>
      </trkpt>
      <trkpt lat="48.08959" lon="-4.23868">
        <ele>132</ele>
        <time>2015-02-26T10:37:49Z</time>
      </trkpt>
      <trkpt lat="48.08964" lon="-4.23873">
        <ele>132</ele>
        <time>2015-02-26T10:37:49Z</time>
      </trkpt>
      <trkpt lat="48.0897" lon="-4.23882">
        <ele>132</ele>
        <time>2015-02-26T10:37:49Z</time>
      </trkpt>
      <trkpt lat="48.08973" lon="-4.23895">
        <ele>132</ele>
        <time>2015-02-26T10:37:49Z</time>
      </trkpt>
      <trkpt lat="48.08974" lon="-4.23908">
        <ele>132</ele>
        <time>2015-02-26T10:37:49Z</time>
      </trkpt>
      <trkpt lat="48.08972" lon="-4.23928">
        <ele>132</ele>
        <time>2015-02-26T10:37:49Z</time>
      </trkpt>
      <trkpt lat="48.08969" lon="-4.23948">
        <ele>133</ele>
        <time>2015-02-26T10:37:49Z</time>
      </trkpt>
      <trkpt lat="48.08962" lon="-4.23952">
        <ele>133</ele>
        <time>2015-02-26T10:37:49Z</time>
      </trkpt>
      <trkpt lat="48.08951" lon="-4.23966">
        <ele>134</ele>
        <time>2015-02-26T10:37:49Z</time>
      </trkpt>
      <trkpt lat="48.08941" lon="-4.2398">
        <ele>134</ele>
        <time>2015-02-26T10:37:49Z</time>
      </trkpt>
      <trkpt lat="48.08927" lon="-4.23992">
        <ele>135</ele>
        <time>2015-02-26T10:37:49Z</time>
      </trkpt>
      <trkpt lat="48.08912" lon="-4.24006">
        <ele>137</ele>
        <time>2015-02-26T10:37:49Z</time>
      </trkpt>
      <trkpt lat="48.08901" lon="-4.24026">
        <ele>137</ele>
        <time>2015-02-26T10:37:49Z</time>
      </trkpt>
      <trkpt lat="48.08891" lon="-4.24044">
        <ele>138</ele>
        <time>2015-02-26T10:37:49Z</time>
      </trkpt>
      <trkpt lat="48.08888" lon="-4.24052">
        <ele>138</ele>
        <time>2015-02-26T10:37:49Z</time>
      </trkpt>
      <trkpt lat="48.08894" lon="-4.24062">
        <ele>138</ele>
        <time>2015-02-26T10:37:49Z</time>
      </trkpt>
      <trkpt lat="48.0891" lon="-4.24077">
        <ele>138</ele>
        <time>2015-02-26T10:37:49Z</time>
      </trkpt>
      <trkpt lat="48.08928" lon="-4.24098">
        <ele>137</ele>
        <time>2015-02-26T10:37:49Z</time>
      </trkpt>
      <trkpt lat="48.08946" lon="-4.24117">
        <ele>136</ele>
        <time>2015-02-26T10:37:49Z</time>
      </trkpt>
      <trkpt lat="48.08949" lon="-4.24124">
        <ele>136</ele>
        <time>2015-02-26T10:37:49Z</time>
      </trkpt>
      <trkpt lat="48.0894" lon="-4.2414">
        <ele>136</ele>
        <time>2015-02-26T10:37:49Z</time>
      </trkpt>
      <trkpt lat="48.0893" lon="-4.24155">
        <ele>136</ele>
        <time>2015-02-26T10:37:49Z</time>
      </trkpt>
      <trkpt lat="48.0892" lon="-4.2417">
        <ele>135</ele>
        <time>2015-02-26T10:37:49Z</time>
      </trkpt>
      <trkpt lat="48.08909" lon="-4.24186">
        <ele>135</ele>
        <time>2015-02-26T10:37:49Z</time>
      </trkpt>
      <trkpt lat="48.08898" lon="-4.24201">
        <ele>135</ele>
        <time>2015-02-26T10:37:49Z</time>
      </trkpt>
      <trkpt lat="48.08893" lon="-4.24208">
        <ele>135</ele>
        <time>2015-02-26T10:37:49Z</time>
      </trkpt>
      <trkpt lat="48.08882" lon="-4.2422">
        <ele>134</ele>
        <time>2015-02-26T10:37:49Z</time>
      </trkpt>
      <trkpt lat="48.08867" lon="-4.24231">
        <ele>134</ele>
        <time>2015-02-26T10:37:49Z</time>
      </trkpt>
      <trkpt lat="48.08851" lon="-4.24243">
        <ele>134</ele>
        <time>2015-02-26T10:37:49Z</time>
      </trkpt>
      <trkpt lat="48.08831" lon="-4.24252">
        <ele>133</ele>
        <time>2015-02-26T10:37:49Z</time>
      </trkpt>
      <trkpt lat="48.0881" lon="-4.24261">
        <ele>132</ele>
        <time>2015-02-26T10:37:49Z</time>
      </trkpt>
      <trkpt lat="48.08804" lon="-4.24264">
        <ele>132</ele>
        <time>2015-02-26T10:37:49Z</time>
      </trkpt>
      <trkpt lat="48.08785" lon="-4.24263">
        <ele>132</ele>
        <time>2015-02-26T10:37:49Z</time>
      </trkpt>
      <trkpt lat="48.0877" lon="-4.24264">
        <ele>133</ele>
        <time>2015-02-26T10:37:49Z</time>
      </trkpt>
      <trkpt lat="48.08753" lon="-4.24267">
        <ele>133</ele>
        <time>2015-02-26T10:37:49Z</time>
      </trkpt>
      <trkpt lat="48.08732" lon="-4.2427">
        <ele>133</ele>
        <time>2015-02-26T10:37:49Z</time>
      </trkpt>
      <trkpt lat="48.08716" lon="-4.24283">
        <ele>132</ele>
        <time>2015-02-26T10:37:49Z</time>
      </trkpt>
      <trkpt lat="48.08702" lon="-4.24282">
        <ele>132</ele>
        <time>2015-02-26T10:37:49Z</time>
      </trkpt>
      <trkpt lat="48.08685" lon="-4.24287">
        <ele>131</ele>
        <time>2015-02-26T10:37:49Z</time>
      </trkpt>
      <trkpt lat="48.08668" lon="-4.24301">
        <ele>131</ele>
        <time>2015-02-26T10:37:49Z</time>
      </trkpt>
      <trkpt lat="48.08658" lon="-4.2431">
        <ele>129</ele>
        <time>2015-02-26T10:37:49Z</time>
      </trkpt>
      <trkpt lat="48.08641" lon="-4.24295">
        <ele>130</ele>
        <time>2015-02-26T10:37:49Z</time>
      </trkpt>
      <trkpt lat="48.08624" lon="-4.24279">
        <ele>130</ele>
        <time>2015-02-26T10:37:49Z</time>
      </trkpt>
      <trkpt lat="48.08606" lon="-4.24264">
        <ele>130</ele>
        <time>2015-02-26T10:37:49Z</time>
      </trkpt>
      <trkpt lat="48.08587" lon="-4.24247">
        <ele>131</ele>
        <time>2015-02-26T10:37:49Z</time>
      </trkpt>
      <trkpt lat="48.08568" lon="-4.2423">
        <ele>131</ele>
        <time>2015-02-26T10:37:49Z</time>
      </trkpt>
      <trkpt lat="48.08559" lon="-4.24224">
        <ele>131</ele>
        <time>2015-02-26T10:37:49Z</time>
      </trkpt>
      <trkpt lat="48.08539" lon="-4.24259">
        <ele>129</ele>
        <time>2015-02-26T10:37:49Z</time>
      </trkpt>
      <trkpt lat="48.08519" lon="-4.24295">
        <ele>128</ele>
        <time>2015-02-26T10:37:49Z</time>
      </trkpt>
      <trkpt lat="48.08499" lon="-4.24332">
        <ele>125</ele>
        <time>2015-02-26T10:37:49Z</time>
      </trkpt>
      <trkpt lat="48.08478" lon="-4.24368">
        <ele>124</ele>
        <time>2015-02-26T10:37:49Z</time>
      </trkpt>
      <trkpt lat="48.08458" lon="-4.24404">
        <ele>124</ele>
        <time>2015-02-26T10:37:49Z</time>
      </trkpt>
      <trkpt lat="48.08438" lon="-4.2444">
        <ele>122</ele>
        <time>2015-02-26T10:37:49Z</time>
      </trkpt>
      <trkpt lat="48.08418" lon="-4.24477">
        <ele>121</ele>
        <time>2015-02-26T10:37:49Z</time>
      </trkpt>
      <trkpt lat="48.08398" lon="-4.24514">
        <ele>119</ele>
        <time>2015-02-26T10:37:49Z</time>
      </trkpt>
      <trkpt lat="48.08377" lon="-4.24551">
        <ele>118</ele>
        <time>2015-02-26T10:37:49Z</time>
      </trkpt>
      <trkpt lat="48.08357" lon="-4.24588">
        <ele>117</ele>
        <time>2015-02-26T10:37:49Z</time>
      </trkpt>
      <trkpt lat="48.08336" lon="-4.24624">
        <ele>117</ele>
        <time>2015-02-26T10:37:49Z</time>
      </trkpt>
      <trkpt lat="48.08326" lon="-4.2464">
        <ele>116</ele>
        <time>2015-02-26T10:37:49Z</time>
      </trkpt>
      <trkpt lat="48.08308" lon="-4.24625">
        <ele>116</ele>
        <time>2015-02-26T10:37:49Z</time>
      </trkpt>
      <trkpt lat="48.08304" lon="-4.24649">
        <ele>116</ele>
        <time>2015-02-26T10:37:49Z</time>
      </trkpt>
      <trkpt lat="48.08293" lon="-4.24674">
        <ele>117</ele>
        <time>2015-02-26T10:37:49Z</time>
      </trkpt>
      <trkpt lat="48.08283" lon="-4.24688">
        <ele>117</ele>
        <time>2015-02-26T10:37:49Z</time>
      </trkpt>
      <trkpt lat="48.08273" lon="-4.24705">
        <ele>117</ele>
        <time>2015-02-26T10:37:49Z</time>
      </trkpt>
      <trkpt lat="48.08263" lon="-4.24701">
        <ele>117</ele>
        <time>2015-02-26T10:37:49Z</time>
      </trkpt>
      <trkpt lat="48.08254" lon="-4.24695">
        <ele>117</ele>
        <time>2015-02-26T10:37:49Z</time>
      </trkpt>
      <trkpt lat="48.08252" lon="-4.24681">
        <ele>117</ele>
        <time>2015-02-26T10:37:49Z</time>
      </trkpt>
      <trkpt lat="48.08245" lon="-4.24654">
        <ele>115</ele>
        <time>2015-02-26T10:37:49Z</time>
      </trkpt>
      <trkpt lat="48.08241" lon="-4.24641">
        <ele>114</ele>
        <time>2015-02-26T10:37:49Z</time>
      </trkpt>
      <trkpt lat="48.08233" lon="-4.24624">
        <ele>114</ele>
        <time>2015-02-26T10:37:49Z</time>
      </trkpt>
      <trkpt lat="48.08228" lon="-4.24613">
        <ele>113</ele>
        <time>2015-02-26T10:37:49Z</time>
      </trkpt>
      <trkpt lat="48.08223" lon="-4.24596">
        <ele>113</ele>
        <time>2015-02-26T10:37:49Z</time>
      </trkpt>
      <trkpt lat="48.08209" lon="-4.24585">
        <ele>113</ele>
        <time>2015-02-26T10:37:49Z</time>
      </trkpt>
      <trkpt lat="48.08194" lon="-4.24576">
        <ele>111</ele>
        <time>2015-02-26T10:37:49Z</time>
      </trkpt>
      <trkpt lat="48.0818" lon="-4.24574">
        <ele>111</ele>
        <time>2015-02-26T10:37:49Z</time>
      </trkpt>
      <trkpt lat="48.08161" lon="-4.24583">
        <ele>109</ele>
        <time>2015-02-26T10:37:49Z</time>
      </trkpt>
      <trkpt lat="48.08143" lon="-4.24592">
        <ele>110</ele>
        <time>2015-02-26T10:37:49Z</time>
      </trkpt>
      <trkpt lat="48.08125" lon="-4.24597">
        <ele>110</ele>
        <time>2015-02-26T10:37:49Z</time>
      </trkpt>
      <trkpt lat="48.08108" lon="-4.24597">
        <ele>109</ele>
        <time>2015-02-26T10:37:49Z</time>
      </trkpt>
      <trkpt lat="48.08097" lon="-4.24594">
        <ele>109</ele>
        <time>2015-02-26T10:37:49Z</time>
      </trkpt>
      <trkpt lat="48.08081" lon="-4.2458">
        <ele>106</ele>
        <time>2015-02-26T10:37:49Z</time>
      </trkpt>
      <trkpt lat="48.08066" lon="-4.24566">
        <ele>104</ele>
        <time>2015-02-26T10:37:49Z</time>
      </trkpt>
      <trkpt lat="48.08052" lon="-4.24554">
        <ele>103</ele>
        <time>2015-02-26T10:37:49Z</time>
      </trkpt>
      <trkpt lat="48.0804" lon="-4.24542">
        <ele>102</ele>
        <time>2015-02-26T10:37:49Z</time>
      </trkpt>
      <trkpt lat="48.08033" lon="-4.2453">
        <ele>101</ele>
        <time>2015-02-26T10:37:49Z</time>
      </trkpt>
      <trkpt lat="48.08025" lon="-4.2452">
        <ele>101</ele>
        <time>2015-02-26T10:37:49Z</time>
      </trkpt>
      <trkpt lat="48.08018" lon="-4.24516">
        <ele>100</ele>
        <time>2015-02-26T10:37:49Z</time>
      </trkpt>
      <trkpt lat="48.0801" lon="-4.24505">
        <ele>99</ele>
        <time>2015-02-26T10:37:49Z</time>
      </trkpt>
      <trkpt lat="48.08007" lon="-4.24494">
        <ele>98</ele>
        <time>2015-02-26T10:37:49Z</time>
      </trkpt>
      <trkpt lat="48.07995" lon="-4.24483">
        <ele>95</ele>
        <time>2015-02-26T10:37:49Z</time>
      </trkpt>
      <trkpt lat="48.07995" lon="-4.24468">
        <ele>94</ele>
        <time>2015-02-26T10:37:49Z</time>
      </trkpt>
      <trkpt lat="48.0799" lon="-4.24441">
        <ele>94</ele>
        <time>2015-02-26T10:37:49Z</time>
      </trkpt>
      <trkpt lat="48.07985" lon="-4.24413">
        <ele>93</ele>
        <time>2015-02-26T10:37:49Z</time>
      </trkpt>
      <trkpt lat="48.07981" lon="-4.24389">
        <ele>92</ele>
        <time>2015-02-26T10:37:49Z</time>
      </trkpt>
      <trkpt lat="48.07977" lon="-4.24385">
        <ele>92</ele>
        <time>2015-02-26T10:37:49Z</time>
      </trkpt>
      <trkpt lat="48.07966" lon="-4.24381">
        <ele>91</ele>
        <time>2015-02-26T10:37:49Z</time>
      </trkpt>
      <trkpt lat="48.07955" lon="-4.24374">
        <ele>91</ele>
        <time>2015-02-26T10:37:49Z</time>
      </trkpt>
      <trkpt lat="48.07941" lon="-4.24358">
        <ele>91</ele>
        <time>2015-02-26T10:37:49Z</time>
      </trkpt>
      <trkpt lat="48.07926" lon="-4.24343">
        <ele>90</ele>
        <time>2015-02-26T10:37:49Z</time>
      </trkpt>
      <trkpt lat="48.07912" lon="-4.24329">
        <ele>89</ele>
        <time>2015-02-26T10:37:49Z</time>
      </trkpt>
      <trkpt lat="48.079" lon="-4.24321">
        <ele>88</ele>
        <time>2015-02-26T10:37:49Z</time>
      </trkpt>
      <trkpt lat="48.07878" lon="-4.24316">
        <ele>87</ele>
        <time>2015-02-26T10:37:49Z</time>
      </trkpt>
      <trkpt lat="48.07862" lon="-4.24312">
        <ele>86</ele>
        <time>2015-02-26T10:37:49Z</time>
      </trkpt>
      <trkpt lat="48.07853" lon="-4.24303">
        <ele>86</ele>
        <time>2015-02-26T10:37:49Z</time>
      </trkpt>
      <trkpt lat="48.07844" lon="-4.2429">
        <ele>86</ele>
        <time>2015-02-26T10:37:49Z</time>
      </trkpt>
      <trkpt lat="48.07841" lon="-4.24279">
        <ele>86</ele>
        <time>2015-02-26T10:37:49Z</time>
      </trkpt>
      <trkpt lat="48.07841" lon="-4.24269">
        <ele>85</ele>
        <time>2015-02-26T10:37:49Z</time>
      </trkpt>
      <trkpt lat="48.07832" lon="-4.24268">
        <ele>83</ele>
        <time>2015-02-26T10:37:49Z</time>
      </trkpt>
      <trkpt lat="48.07819" lon="-4.24271">
        <ele>82</ele>
        <time>2015-02-26T10:37:49Z</time>
      </trkpt>
      <trkpt lat="48.07803" lon="-4.24276">
        <ele>82</ele>
        <time>2015-02-26T10:37:49Z</time>
      </trkpt>
      <trkpt lat="48.07786" lon="-4.24282">
        <ele>81</ele>
        <time>2015-02-26T10:37:49Z</time>
      </trkpt>
      <trkpt lat="48.07769" lon="-4.24289">
        <ele>80</ele>
        <time>2015-02-26T10:37:49Z</time>
      </trkpt>
      <trkpt lat="48.07749" lon="-4.24298">
        <ele>76</ele>
        <time>2015-02-26T10:37:49Z</time>
      </trkpt>
      <trkpt lat="48.07742" lon="-4.24304">
        <ele>75</ele>
        <time>2015-02-26T10:37:49Z</time>
      </trkpt>
      <trkpt lat="48.07739" lon="-4.24311">
        <ele>75</ele>
        <time>2015-02-26T10:37:49Z</time>
      </trkpt>
      <trkpt lat="48.07733" lon="-4.24335">
        <ele>74</ele>
        <time>2015-02-26T10:37:49Z</time>
      </trkpt>
      <trkpt lat="48.07722" lon="-4.2434">
        <ele>74</ele>
        <time>2015-02-26T10:37:49Z</time>
      </trkpt>
      <trkpt lat="48.0771" lon="-4.24346">
        <ele>73</ele>
        <time>2015-02-26T10:37:49Z</time>
      </trkpt>
      <trkpt lat="48.07699" lon="-4.24351">
        <ele>72</ele>
        <time>2015-02-26T10:37:49Z</time>
      </trkpt>
      <trkpt lat="48.07687" lon="-4.24356">
        <ele>72</ele>
        <time>2015-02-26T10:37:49Z</time>
      </trkpt>
      <trkpt lat="48.07683" lon="-4.24357">
        <ele>72</ele>
        <time>2015-02-26T10:37:49Z</time>
      </trkpt>
      <trkpt lat="48.07674" lon="-4.24358">
        <ele>72</ele>
        <time>2015-02-26T10:37:49Z</time>
      </trkpt>
      <trkpt lat="48.07664" lon="-4.24358">
        <ele>67</ele>
        <time>2015-02-26T10:37:49Z</time>
      </trkpt>
      <trkpt lat="48.07659" lon="-4.24358">
        <ele>67</ele>
        <time>2015-02-26T10:37:49Z</time>
      </trkpt>
      <trkpt lat="48.07649" lon="-4.24347">
        <ele>67</ele>
        <time>2015-02-26T10:37:49Z</time>
      </trkpt>
      <trkpt lat="48.0764" lon="-4.24334">
        <ele>67</ele>
        <time>2015-02-26T10:37:49Z</time>
      </trkpt>
      <trkpt lat="48.07631" lon="-4.24322">
        <ele>68</ele>
        <time>2015-02-26T10:37:49Z</time>
      </trkpt>
      <trkpt lat="48.07623" lon="-4.24309">
        <ele>68</ele>
        <time>2015-02-26T10:37:49Z</time>
      </trkpt>
      <trkpt lat="48.07614" lon="-4.24297">
        <ele>67</ele>
        <time>2015-02-26T10:37:49Z</time>
      </trkpt>
      <trkpt lat="48.07605" lon="-4.24285">
        <ele>67</ele>
        <time>2015-02-26T10:37:49Z</time>
      </trkpt>
      <trkpt lat="48.07596" lon="-4.24272">
        <ele>66</ele>
        <time>2015-02-26T10:37:49Z</time>
      </trkpt>
      <trkpt lat="48.07592" lon="-4.24266">
        <ele>66</ele>
        <time>2015-02-26T10:37:49Z</time>
      </trkpt>
      <trkpt lat="48.07581" lon="-4.24254">
        <ele>63</ele>
        <time>2015-02-26T10:37:49Z</time>
      </trkpt>
      <trkpt lat="48.07573" lon="-4.24253">
        <ele>63</ele>
        <time>2015-02-26T10:37:49Z</time>
      </trkpt>
      <trkpt lat="48.07563" lon="-4.24255">
        <ele>62</ele>
        <time>2015-02-26T10:37:49Z</time>
      </trkpt>
      <trkpt lat="48.07552" lon="-4.24258">
        <ele>61</ele>
        <time>2015-02-26T10:37:49Z</time>
      </trkpt>
      <trkpt lat="48.07543" lon="-4.2426">
        <ele>61</ele>
        <time>2015-02-26T10:37:49Z</time>
      </trkpt>
      <trkpt lat="48.07532" lon="-4.24268">
        <ele>60</ele>
        <time>2015-02-26T10:37:49Z</time>
      </trkpt>
      <trkpt lat="48.07521" lon="-4.2428">
        <ele>60</ele>
        <time>2015-02-26T10:37:49Z</time>
      </trkpt>
      <trkpt lat="48.07513" lon="-4.24293">
        <ele>60</ele>
        <time>2015-02-26T10:37:49Z</time>
      </trkpt>
      <trkpt lat="48.07511" lon="-4.24311">
        <ele>60</ele>
        <time>2015-02-26T10:37:49Z</time>
      </trkpt>
      <trkpt lat="48.07511" lon="-4.24324">
        <ele>59</ele>
        <time>2015-02-26T10:37:49Z</time>
      </trkpt>
      <trkpt lat="48.07516" lon="-4.24339">
        <ele>58</ele>
        <time>2015-02-26T10:37:49Z</time>
      </trkpt>
      <trkpt lat="48.07519" lon="-4.24356">
        <ele>58</ele>
        <time>2015-02-26T10:37:49Z</time>
      </trkpt>
      <trkpt lat="48.0752" lon="-4.24371">
        <ele>58</ele>
        <time>2015-02-26T10:37:49Z</time>
      </trkpt>
      <trkpt lat="48.07514" lon="-4.24387">
        <ele>57</ele>
        <time>2015-02-26T10:37:49Z</time>
      </trkpt>
      <trkpt lat="48.07508" lon="-4.24402">
        <ele>56</ele>
        <time>2015-02-26T10:37:49Z</time>
      </trkpt>
      <trkpt lat="48.07504" lon="-4.24411">
        <ele>54</ele>
        <time>2015-02-26T10:37:49Z</time>
      </trkpt>
      <trkpt lat="48.07497" lon="-4.24422">
        <ele>51</ele>
        <time>2015-02-26T10:37:49Z</time>
      </trkpt>
      <trkpt lat="48.07488" lon="-4.24433">
        <ele>49</ele>
        <time>2015-02-26T10:37:49Z</time>
      </trkpt>
      <trkpt lat="48.07478" lon="-4.24439">
        <ele>48</ele>
        <time>2015-02-26T10:37:49Z</time>
      </trkpt>
      <trkpt lat="48.07466" lon="-4.24438">
        <ele>47</ele>
        <time>2015-02-26T10:37:49Z</time>
      </trkpt>
      <trkpt lat="48.07455" lon="-4.24437">
        <ele>47</ele>
        <time>2015-02-26T10:37:49Z</time>
      </trkpt>
      <trkpt lat="48.07452" lon="-4.24436">
        <ele>47</ele>
        <time>2015-02-26T10:37:49Z</time>
      </trkpt>
      <trkpt lat="48.07443" lon="-4.24437">
        <ele>46</ele>
        <time>2015-02-26T10:37:49Z</time>
      </trkpt>
      <trkpt lat="48.07434" lon="-4.24432">
        <ele>47</ele>
        <time>2015-02-26T10:37:49Z</time>
      </trkpt>
      <trkpt lat="48.07426" lon="-4.24423">
        <ele>47</ele>
        <time>2015-02-26T10:37:49Z</time>
      </trkpt>
      <trkpt lat="48.0742" lon="-4.24411">
        <ele>48</ele>
        <time>2015-02-26T10:37:49Z</time>
      </trkpt>
      <trkpt lat="48.07416" lon="-4.244">
        <ele>44</ele>
        <time>2015-02-26T10:37:49Z</time>
      </trkpt>
      <trkpt lat="48.07413" lon="-4.24387">
        <ele>43</ele>
        <time>2015-02-26T10:37:49Z</time>
      </trkpt>
      <trkpt lat="48.07411" lon="-4.24376">
        <ele>43</ele>
        <time>2015-02-26T10:37:49Z</time>
      </trkpt>
      <trkpt lat="48.07412" lon="-4.24365">
        <ele>43</ele>
        <time>2015-02-26T10:37:49Z</time>
      </trkpt>
      <trkpt lat="48.07415" lon="-4.24354">
        <ele>43</ele>
        <time>2015-02-26T10:37:49Z</time>
      </trkpt>
      <trkpt lat="48.07422" lon="-4.24339">
        <ele>47</ele>
        <time>2015-02-26T10:37:49Z</time>
      </trkpt>
      <trkpt lat="48.07429" lon="-4.24324">
        <ele>48</ele>
        <time>2015-02-26T10:37:49Z</time>
      </trkpt>
      <trkpt lat="48.07439" lon="-4.24303">
        <ele>50</ele>
        <time>2015-02-26T10:37:49Z</time>
      </trkpt>
      <trkpt lat="48.07442" lon="-4.24285">
        <ele>50</ele>
        <time>2015-02-26T10:37:49Z</time>
      </trkpt>
      <trkpt lat="48.07445" lon="-4.24266">
        <ele>49</ele>
        <time>2015-02-26T10:37:49Z</time>
      </trkpt>
      <trkpt lat="48.07443" lon="-4.24246">
        <ele>48</ele>
        <time>2015-02-26T10:37:49Z</time>
      </trkpt>
      <trkpt lat="48.07442" lon="-4.24226">
        <ele>48</ele>
        <time>2015-02-26T10:37:49Z</time>
      </trkpt>
      <trkpt lat="48.07438" lon="-4.2421">
        <ele>48</ele>
        <time>2015-02-26T10:37:49Z</time>
      </trkpt>
      <trkpt lat="48.0744" lon="-4.24197">
        <ele>48</ele>
        <time>2015-02-26T10:37:49Z</time>
      </trkpt>
      <trkpt lat="48.07446" lon="-4.24186">
        <ele>48</ele>
        <time>2015-02-26T10:37:49Z</time>
      </trkpt>
      <trkpt lat="48.07455" lon="-4.24172">
        <ele>48</ele>
        <time>2015-02-26T10:37:49Z</time>
      </trkpt>
      <trkpt lat="48.07459" lon="-4.24165">
        <ele>47</ele>
        <time>2015-02-26T10:37:49Z</time>
      </trkpt>
      <trkpt lat="48.07462" lon="-4.2415">
        <ele>47</ele>
        <time>2015-02-26T10:37:49Z</time>
      </trkpt>
      <trkpt lat="48.07464" lon="-4.24129">
        <ele>47</ele>
        <time>2015-02-26T10:37:49Z</time>
      </trkpt>
      <trkpt lat="48.07467" lon="-4.24118">
        <ele>47</ele>
        <time>2015-02-26T10:37:49Z</time>
      </trkpt>
      <trkpt lat="48.0747" lon="-4.24109">
        <ele>47</ele>
        <time>2015-02-26T10:37:49Z</time>
      </trkpt>
      <trkpt lat="48.0747" lon="-4.24101">
        <ele>47</ele>
        <time>2015-02-26T10:37:49Z</time>
      </trkpt>
      <trkpt lat="48.07477" lon="-4.24095">
        <ele>48</ele>
        <time>2015-02-26T10:37:49Z</time>
      </trkpt>
      <trkpt lat="48.07479" lon="-4.24085">
        <ele>48</ele>
        <time>2015-02-26T10:37:49Z</time>
      </trkpt>
      <trkpt lat="48.07479" lon="-4.24071">
        <ele>46</ele>
        <time>2015-02-26T10:37:49Z</time>
      </trkpt>
      <trkpt lat="48.07479" lon="-4.24054">
        <ele>45</ele>
        <time>2015-02-26T10:37:49Z</time>
      </trkpt>
      <trkpt lat="48.0748" lon="-4.24047">
        <ele>45</ele>
        <time>2015-02-26T10:37:49Z</time>
      </trkpt>
      <trkpt lat="48.07488" lon="-4.24039">
        <ele>45</ele>
        <time>2015-02-26T10:37:49Z</time>
      </trkpt>
      <trkpt lat="48.075" lon="-4.24035">
        <ele>52</ele>
        <time>2015-02-26T10:37:49Z</time>
      </trkpt>
      <trkpt lat="48.07508" lon="-4.2403">
        <ele>52</ele>
        <time>2015-02-26T10:37:49Z</time>
      </trkpt>
      <trkpt lat="48.07513" lon="-4.2402">
        <ele>51</ele>
        <time>2015-02-26T10:37:49Z</time>
      </trkpt>
      <trkpt lat="48.07521" lon="-4.24007">
        <ele>51</ele>
        <time>2015-02-26T10:37:49Z</time>
      </trkpt>
      <trkpt lat="48.07533" lon="-4.23994">
        <ele>50</ele>
        <time>2015-02-26T10:37:49Z</time>
      </trkpt>
      <trkpt lat="48.07545" lon="-4.23981">
        <ele>51</ele>
        <time>2015-02-26T10:37:49Z</time>
      </trkpt>
      <trkpt lat="48.07549" lon="-4.2397">
        <ele>51</ele>
        <time>2015-02-26T10:37:49Z</time>
      </trkpt>
      <trkpt lat="48.07557" lon="-4.23946">
        <ele>51</ele>
        <time>2015-02-26T10:37:49Z</time>
      </trkpt>
      <trkpt lat="48.07562" lon="-4.2393">
        <ele>52</ele>
        <time>2015-02-26T10:37:49Z</time>
      </trkpt>
      <trkpt lat="48.07575" lon="-4.23915">
        <ele>52</ele>
        <time>2015-02-26T10:37:49Z</time>
      </trkpt>
      <trkpt lat="48.07592" lon="-4.23907">
        <ele>54</ele>
        <time>2015-02-26T10:37:49Z</time>
      </trkpt>
      <trkpt lat="48.07609" lon="-4.23907">
        <ele>54</ele>
        <time>2015-02-26T10:37:49Z</time>
      </trkpt>
      <trkpt lat="48.07625" lon="-4.23908">
        <ele>55</ele>
        <time>2015-02-26T10:37:49Z</time>
      </trkpt>
      <trkpt lat="48.07637" lon="-4.23909">
        <ele>56</ele>
        <time>2015-02-26T10:37:49Z</time>
      </trkpt>
      <trkpt lat="48.07647" lon="-4.239">
        <ele>57</ele>
        <time>2015-02-26T10:37:49Z</time>
      </trkpt>
      <trkpt lat="48.07655" lon="-4.23894">
        <ele>57</ele>
        <time>2015-02-26T10:37:49Z</time>
      </trkpt>
      <trkpt lat="48.07669" lon="-4.23891">
        <ele>61</ele>
        <time>2015-02-26T10:37:49Z</time>
      </trkpt>
      <trkpt lat="48.07683" lon="-4.23889">
        <ele>61</ele>
        <time>2015-02-26T10:37:49Z</time>
      </trkpt>
      <trkpt lat="48.077" lon="-4.23885">
        <ele>61</ele>
        <time>2015-02-26T10:37:49Z</time>
      </trkpt>
      <trkpt lat="48.07714" lon="-4.23877">
        <ele>60</ele>
        <time>2015-02-26T10:37:49Z</time>
      </trkpt>
      <trkpt lat="48.07729" lon="-4.23866">
        <ele>60</ele>
        <time>2015-02-26T10:37:49Z</time>
      </trkpt>
      <trkpt lat="48.07737" lon="-4.2386">
        <ele>60</ele>
        <time>2015-02-26T10:37:49Z</time>
      </trkpt>
      <trkpt lat="48.07748" lon="-4.23842">
        <ele>59</ele>
        <time>2015-02-26T10:37:49Z</time>
      </trkpt>
      <trkpt lat="48.07757" lon="-4.23825">
        <ele>60</ele>
        <time>2015-02-26T10:37:49Z</time>
      </trkpt>
      <trkpt lat="48.07759" lon="-4.23819">
        <ele>60</ele>
        <time>2015-02-26T10:37:49Z</time>
      </trkpt>
      <trkpt lat="48.07762" lon="-4.23802">
        <ele>61</ele>
        <time>2015-02-26T10:37:49Z</time>
      </trkpt>
      <trkpt lat="48.0777" lon="-4.23789">
        <ele>61</ele>
        <time>2015-02-26T10:37:49Z</time>
      </trkpt>
      <trkpt lat="48.07771" lon="-4.23767">
        <ele>60</ele>
        <time>2015-02-26T10:37:49Z</time>
      </trkpt>
      <trkpt lat="48.07771" lon="-4.23741">
        <ele>59</ele>
        <time>2015-02-26T10:37:49Z</time>
      </trkpt>
      <trkpt lat="48.07773" lon="-4.23734">
        <ele>59</ele>
        <time>2015-02-26T10:37:49Z</time>
      </trkpt>
      <trkpt lat="48.07792" lon="-4.23725">
        <ele>62</ele>
        <time>2015-02-26T10:37:49Z</time>
      </trkpt>
      <trkpt lat="48.07815" lon="-4.23717">
        <ele>64</ele>
        <time>2015-02-26T10:37:49Z</time>
      </trkpt>
      <trkpt lat="48.07841" lon="-4.23712">
        <ele>74</ele>
        <time>2015-02-26T10:37:49Z</time>
      </trkpt>
      <trkpt lat="48.07865" lon="-4.2371">
        <ele>75</ele>
        <time>2015-02-26T10:37:49Z</time>
      </trkpt>
      <trkpt lat="48.07884" lon="-4.23705">
        <ele>76</ele>
        <time>2015-02-26T10:37:49Z</time>
      </trkpt>
      <trkpt lat="48.07905" lon="-4.23709">
        <ele>77</ele>
        <time>2015-02-26T10:37:49Z</time>
      </trkpt>
      <trkpt lat="48.07926" lon="-4.23713">
        <ele>84</ele>
        <time>2015-02-26T10:37:49Z</time>
      </trkpt>
      <trkpt lat="48.07941" lon="-4.23717">
        <ele>84</ele>
        <time>2015-02-26T10:37:49Z</time>
      </trkpt>
      <trkpt lat="48.07973" lon="-4.23716">
        <ele>86</ele>
        <time>2015-02-26T10:37:49Z</time>
      </trkpt>
      <trkpt lat="48.07979" lon="-4.23702">
        <ele>86</ele>
        <time>2015-02-26T10:37:49Z</time>
      </trkpt>
      <trkpt lat="48.07989" lon="-4.23681">
        <ele>87</ele>
        <time>2015-02-26T10:37:49Z</time>
      </trkpt>
      <trkpt lat="48.08" lon="-4.23668">
        <ele>88</ele>
        <time>2015-02-26T10:37:49Z</time>
      </trkpt>
      <trkpt lat="48.08013" lon="-4.23665">
        <ele>87</ele>
        <time>2015-02-26T10:37:49Z</time>
      </trkpt>
      <trkpt lat="48.08031" lon="-4.23665">
        <ele>87</ele>
        <time>2015-02-26T10:37:49Z</time>
      </trkpt>
      <trkpt lat="48.08049" lon="-4.23665">
        <ele>87</ele>
        <time>2015-02-26T10:37:49Z</time>
      </trkpt>
      <trkpt lat="48.08069" lon="-4.23665">
        <ele>89</ele>
        <time>2015-02-26T10:37:49Z</time>
      </trkpt>
      <trkpt lat="48.08088" lon="-4.23665">
        <ele>92</ele>
        <time>2015-02-26T10:37:49Z</time>
      </trkpt>
      <trkpt lat="48.08108" lon="-4.23665">
        <ele>91</ele>
        <time>2015-02-26T10:37:49Z</time>
      </trkpt>
      <trkpt lat="48.08118" lon="-4.2366">
        <ele>91</ele>
        <time>2015-02-26T10:37:49Z</time>
      </trkpt>
      <trkpt lat="48.08134" lon="-4.23646">
        <ele>92</ele>
        <time>2015-02-26T10:37:49Z</time>
      </trkpt>
      <trkpt lat="48.08144" lon="-4.23638">
        <ele>92</ele>
        <time>2015-02-26T10:37:49Z</time>
      </trkpt>
      <trkpt lat="48.08159" lon="-4.23632">
        <ele>92</ele>
        <time>2015-02-26T10:37:49Z</time>
      </trkpt>
      <trkpt lat="48.08177" lon="-4.23626">
        <ele>97</ele>
        <time>2015-02-26T10:37:49Z</time>
      </trkpt>
      <trkpt lat="48.08198" lon="-4.23619">
        <ele>98</ele>
        <time>2015-02-26T10:37:49Z</time>
      </trkpt>
      <trkpt lat="48.08216" lon="-4.23614">
        <ele>99</ele>
        <time>2015-02-26T10:37:49Z</time>
      </trkpt>
      <trkpt lat="48.08227" lon="-4.23606">
        <ele>100</ele>
        <time>2015-02-26T10:37:49Z</time>
      </trkpt>
      <trkpt lat="48.08233" lon="-4.23595">
        <ele>101</ele>
        <time>2015-02-26T10:37:49Z</time>
      </trkpt>
      <trkpt lat="48.08235" lon="-4.23585">
        <ele>101</ele>
        <time>2015-02-26T10:37:49Z</time>
      </trkpt>
      <trkpt lat="48.08233" lon="-4.23572">
        <ele>100</ele>
        <time>2015-02-26T10:37:49Z</time>
      </trkpt>
      <trkpt lat="48.08231" lon="-4.23558">
        <ele>99</ele>
        <time>2015-02-26T10:37:49Z</time>
      </trkpt>
      <trkpt lat="48.0822" lon="-4.23532">
        <ele>98</ele>
        <time>2015-02-26T10:37:49Z</time>
      </trkpt>
      <trkpt lat="48.08206" lon="-4.23504">
        <ele>97</ele>
        <time>2015-02-26T10:37:49Z</time>
      </trkpt>
      <trkpt lat="48.08193" lon="-4.23478">
        <ele>98</ele>
        <time>2015-02-26T10:37:49Z</time>
      </trkpt>
      <trkpt lat="48.08174" lon="-4.23457">
        <ele>98</ele>
        <time>2015-02-26T10:37:49Z</time>
      </trkpt>
      <trkpt lat="48.08159" lon="-4.23439">
        <ele>91</ele>
        <time>2015-02-26T10:37:49Z</time>
      </trkpt>
      <trkpt lat="48.08148" lon="-4.2342">
        <ele>92</ele>
        <time>2015-02-26T10:37:49Z</time>
      </trkpt>
      <trkpt lat="48.08141" lon="-4.23408">
        <ele>92</ele>
        <time>2015-02-26T10:37:49Z</time>
      </trkpt>
      <trkpt lat="48.08152" lon="-4.23397">
        <ele>93</ele>
        <time>2015-02-26T10:37:49Z</time>
      </trkpt>
      <trkpt lat="48.08168" lon="-4.23385">
        <ele>98</ele>
        <time>2015-02-26T10:37:49Z</time>
      </trkpt>
      <trkpt lat="48.08183" lon="-4.23378">
        <ele>99</ele>
        <time>2015-02-26T10:37:49Z</time>
      </trkpt>
      <trkpt lat="48.08206" lon="-4.23377">
        <ele>100</ele>
        <time>2015-02-26T10:37:49Z</time>
      </trkpt>
      <trkpt lat="48.08231" lon="-4.23376">
        <ele>102</ele>
        <time>2015-02-26T10:37:49Z</time>
      </trkpt>
      <trkpt lat="48.08247" lon="-4.23374">
        <ele>103</ele>
        <time>2015-02-26T10:37:49Z</time>
      </trkpt>
      <trkpt lat="48.08247" lon="-4.23349">
        <ele>103</ele>
        <time>2015-02-26T10:37:49Z</time>
      </trkpt>
      <trkpt lat="48.08247" lon="-4.23321">
        <ele>102</ele>
        <time>2015-02-26T10:37:49Z</time>
      </trkpt>
      <trkpt lat="48.08248" lon="-4.23293">
        <ele>99</ele>
        <time>2015-02-26T10:37:49Z</time>
      </trkpt>
      <trkpt lat="48.08247" lon="-4.23264">
        <ele>100</ele>
        <time>2015-02-26T10:37:49Z</time>
      </trkpt>
      <trkpt lat="48.08247" lon="-4.23235">
        <ele>98</ele>
        <time>2015-02-26T10:37:49Z</time>
      </trkpt>
      <trkpt lat="48.08246" lon="-4.23206">
        <ele>95</ele>
        <time>2015-02-26T10:37:49Z</time>
      </trkpt>
      <trkpt lat="48.08246" lon="-4.23174">
        <ele>96</ele>
        <time>2015-02-26T10:37:49Z</time>
      </trkpt>
      <trkpt lat="48.08245" lon="-4.23143">
        <ele>91</ele>
        <time>2015-02-26T10:37:49Z</time>
      </trkpt>
      <trkpt lat="48.08245" lon="-4.23123">
        <ele>90</ele>
        <time>2015-02-26T10:37:49Z</time>
      </trkpt>
      <trkpt lat="48.08252" lon="-4.23104">
        <ele>94</ele>
        <time>2015-02-26T10:37:49Z</time>
      </trkpt>
      <trkpt lat="48.08261" lon="-4.23085">
        <ele>93</ele>
        <time>2015-02-26T10:37:49Z</time>
      </trkpt>
      <trkpt lat="48.08266" lon="-4.23072">
        <ele>96</ele>
        <time>2015-02-26T10:37:49Z</time>
      </trkpt>
      <trkpt lat="48.08269" lon="-4.23058">
        <ele>98</ele>
        <time>2015-02-26T10:37:49Z</time>
      </trkpt>
      <trkpt lat="48.08266" lon="-4.23045">
        <ele>99</ele>
        <time>2015-02-26T10:37:49Z</time>
      </trkpt>
      <trkpt lat="48.08247" lon="-4.23017">
        <ele>93</ele>
        <time>2015-02-26T10:37:49Z</time>
      </trkpt>
      <trkpt lat="48.08228" lon="-4.2299">
        <ele>97</ele>
        <time>2015-02-26T10:37:49Z</time>
      </trkpt>
      <trkpt lat="48.0821" lon="-4.22962">
        <ele>97</ele>
        <time>2015-02-26T10:37:49Z</time>
      </trkpt>
      <trkpt lat="48.08191" lon="-4.22935">
        <ele>98</ele>
        <time>2015-02-26T10:37:49Z</time>
      </trkpt>
      <trkpt lat="48.08175" lon="-4.22908">
        <ele>101</ele>
        <time>2015-02-26T10:37:49Z</time>
      </trkpt>
      <trkpt lat="48.0817" lon="-4.22894">
        <ele>102</ele>
        <time>2015-02-26T10:37:49Z</time>
      </trkpt>
      <trkpt lat="48.08164" lon="-4.22873">
        <ele>98</ele>
        <time>2015-02-26T10:37:49Z</time>
      </trkpt>
      <trkpt lat="48.08159" lon="-4.22849">
        <ele>99</ele>
        <time>2015-02-26T10:37:49Z</time>
      </trkpt>
      <trkpt lat="48.08158" lon="-4.2282">
        <ele>98</ele>
        <time>2015-02-26T10:37:49Z</time>
      </trkpt>
      <trkpt lat="48.08155" lon="-4.22793">
        <ele>97</ele>
        <time>2015-02-26T10:37:49Z</time>
      </trkpt>
      <trkpt lat="48.08167" lon="-4.22796">
        <ele>97</ele>
        <time>2015-02-26T10:37:49Z</time>
      </trkpt>
      <trkpt lat="48.0818" lon="-4.22799">
        <ele>104</ele>
        <time>2015-02-26T10:37:49Z</time>
      </trkpt>
      <trkpt lat="48.08194" lon="-4.22795">
        <ele>104</ele>
      </trkpt>
      <trkpt lat="48.08206" lon="-4.22786">
        <ele>105</ele>
      </trkpt>
      <trkpt lat="48.08208" lon="-4.22771">
        <ele>105</ele>
      </trkpt>
      <trkpt lat="48.08268" lon="-4.2277">
        <ele>113</ele>
      </trkpt>
      <trkpt lat="48.08286" lon="-4.2278">
        <ele>114</ele>
      </trkpt>
      <trkpt lat="48.08306" lon="-4.22776">
        <ele>115</ele>
      </trkpt>
      <trkpt lat="48.08361" lon="-4.22811">
        <ele>122</ele>
      </trkpt>
      <trkpt lat="48.08377" lon="-4.22832">
        <ele>123</ele>
      </trkpt>
      <trkpt lat="48.08432" lon="-4.22853">
        <ele>130</ele>
      </trkpt>
      <trkpt lat="48.08502" lon="-4.22862">
        <ele>132</ele>
      </trkpt>
      <trkpt lat="48.08608" lon="-4.22857">
        <ele>130</ele>
      </trkpt>
      <trkpt lat="48.08631" lon="-4.2287">
        <ele>130</ele>
      </trkpt>
      <trkpt lat="48.0865" lon="-4.22904">
        <ele>130</ele>
      </trkpt>
      <trkpt lat="48.08652" lon="-4.22876">
        <ele>129</ele>
      </trkpt>
      <trkpt lat="48.08702" lon="-4.22879">
        <ele>130</ele>
      </trkpt>
      <trkpt lat="48.08768" lon="-4.22854">
        <ele>133</ele>
      </trkpt>
      <trkpt lat="48.08784" lon="-4.22845">
        <ele>133</ele>
      </trkpt>
      <trkpt lat="48.08802" lon="-4.22816">
        <ele>131</ele>
      </trkpt>
      <trkpt lat="48.08831" lon="-4.22818">
        <ele>133</ele>
      </trkpt>
      <trkpt lat="48.08859" lon="-4.22808">
        <ele>135</ele>
      </trkpt>
      <trkpt lat="48.08889" lon="-4.22792">
        <ele>136</ele>
      </trkpt>
      <trkpt lat="48.08906" lon="-4.22756">
        <ele>137</ele>
      </trkpt>
      <trkpt lat="48.08934" lon="-4.22672">
        <ele>142</ele>
      </trkpt>
      <trkpt lat="48.08962" lon="-4.22587">
        <ele>146</ele>
      </trkpt>
      <trkpt lat="48.08973" lon="-4.22554">
        <ele>148</ele>
      </trkpt>
      <trkpt lat="48.0899" lon="-4.22509">
        <ele>149</ele>
      </trkpt>
      <trkpt lat="48.09018" lon="-4.22432">
        <ele>151</ele>
      </trkpt>
      <trkpt lat="48.09034" lon="-4.22391">
        <ele>151</ele>
      </trkpt>
      <trkpt lat="48.09022" lon="-4.22337">
        <ele>150</ele>
      </trkpt>
      <trkpt lat="48.08999" lon="-4.22295">
        <ele>147</ele>
      </trkpt>
      <trkpt lat="48.08974" lon="-4.22233">
        <ele>143</ele>
      </trkpt>
      <trkpt lat="48.08965" lon="-4.22187">
        <ele>141</ele>
      </trkpt>
      <trkpt lat="48.08955" lon="-4.22168">
        <ele>141</ele>
      </trkpt>
      <trkpt lat="48.0894" lon="-4.22168">
        <ele>140</ele>
      </trkpt>
      <trkpt lat="48.08871" lon="-4.22177">
        <ele>135</ele>
      </trkpt>
      <trkpt lat="48.08764" lon="-4.22229">
        <ele>128</ele>
      </trkpt>
      <trkpt lat="48.08674" lon="-4.22254">
        <ele>122</ele>
      </trkpt>
      <trkpt lat="48.0863" lon="-4.22251">
        <ele>117</ele>
      </trkpt>
      <trkpt lat="48.08559" lon="-4.22253">
        <ele>110</ele>
      </trkpt>
      <trkpt lat="48.08499" lon="-4.22294">
        <ele>106</ele>
      </trkpt>
      <trkpt lat="48.08512" lon="-4.22335">
        <ele>112</ele>
      </trkpt>
      <trkpt lat="48.08543" lon="-4.22333">
        <ele>111</ele>
      </trkpt>
      <trkpt lat="48.08579" lon="-4.22314">
        <ele>112</ele>
      </trkpt>
      <trkpt lat="48.08625" lon="-4.22313">
        <ele>118</ele>
      </trkpt>
      <trkpt lat="48.08673" lon="-4.22313">
        <ele>125</ele>
      </trkpt>
      <trkpt lat="48.08729" lon="-4.22297">
        <ele>127</ele>
      </trkpt>
      <trkpt lat="48.0881" lon="-4.22274">
        <ele>136</ele>
      </trkpt>
      <trkpt lat="48.08883" lon="-4.22232">
        <ele>139</ele>
      </trkpt>
      <trkpt lat="48.08883" lon="-4.2237">
        <ele>145</ele>
      </trkpt>
      <trkpt lat="48.08864" lon="-4.22374">
        <ele>144</ele>
      </trkpt>
      <trkpt lat="48.08844" lon="-4.22381">
        <ele>143</ele>
      </trkpt>
      <trkpt lat="48.08829" lon="-4.22403">
        <ele>139</ele>
      </trkpt>
      <trkpt lat="48.08795" lon="-4.2244">
        <ele>136</ele>
      </trkpt>
      <trkpt lat="48.08746" lon="-4.22521">
        <ele>127</ele>
      </trkpt>
      <trkpt lat="48.08677" lon="-4.22548">
        <ele>123</ele>
      </trkpt>
      <trkpt lat="48.08633" lon="-4.22553">
        <ele>118</ele>
      </trkpt>
      <trkpt lat="48.08586" lon="-4.22569">
        <ele>117</ele>
      </trkpt>
      <trkpt lat="48.08559" lon="-4.22573">
        <ele>115</ele>
      </trkpt>
      <trkpt lat="48.08532" lon="-4.22573">
        <ele>114</ele>
      </trkpt>
      <trkpt lat="48.08455" lon="-4.22595">
        <ele>114</ele>
      </trkpt>
      <trkpt lat="48.08359" lon="-4.22575">
        <ele>110</ele>
      </trkpt>
      <trkpt lat="48.08333" lon="-4.22569">
        <ele>109</ele>
      </trkpt>
      <trkpt lat="48.08331" lon="-4.22554">
        <ele>109</ele>
      </trkpt>
      <trkpt lat="48.08313" lon="-4.22446">
        <ele>109</ele>
      </trkpt>
      <trkpt lat="48.08305" lon="-4.22309">
        <ele>101</ele>
      </trkpt>
      <trkpt lat="48.08288" lon="-4.2229">
        <ele>100</ele>
      </trkpt>
      <trkpt lat="48.08251" lon="-4.22304">
        <ele>99</ele>
      </trkpt>
      <trkpt lat="48.08194" lon="-4.22335">
        <ele>93</ele>
      </trkpt>
      <trkpt lat="48.0814" lon="-4.22359">
        <ele>82</ele>
      </trkpt>
      <trkpt lat="48.08089" lon="-4.22384">
        <ele>79</ele>
      </trkpt>
      <trkpt lat="48.08063" lon="-4.22411">
        <ele>71</ele>
        <time>2015-02-26T10:37:49Z</time>
      </trkpt>
      <trkpt lat="48.08063" lon="-4.22405">
        <ele>70</ele>
        <time>2015-02-26T10:37:49Z</time>
      </trkpt>
      <trkpt lat="48.08052" lon="-4.22395">
        <ele>69</ele>
        <time>2015-02-26T10:37:49Z</time>
      </trkpt>
      <trkpt lat="48.08041" lon="-4.22388">
        <ele>67</ele>
        <time>2015-02-26T10:37:49Z</time>
      </trkpt>
      <trkpt lat="48.08026" lon="-4.22385">
        <ele>66</ele>
        <time>2015-02-26T10:37:49Z</time>
      </trkpt>
      <trkpt lat="48.08018" lon="-4.2239">
        <ele>66</ele>
        <time>2015-02-26T10:37:49Z</time>
      </trkpt>
      <trkpt lat="48.08013" lon="-4.22396">
        <ele>65</ele>
        <time>2015-02-26T10:37:49Z</time>
      </trkpt>
      <trkpt lat="48.08009" lon="-4.22405">
        <ele>64</ele>
        <time>2015-02-26T10:37:49Z</time>
      </trkpt>
      <trkpt lat="48.08005" lon="-4.22412">
        <ele>63</ele>
        <time>2015-02-26T10:37:49Z</time>
      </trkpt>
      <trkpt lat="48.08" lon="-4.2242">
        <ele>62</ele>
        <time>2015-02-26T10:37:49Z</time>
      </trkpt>
      <trkpt lat="48.07997" lon="-4.2242">
        <ele>61</ele>
        <time>2015-02-26T10:37:49Z</time>
      </trkpt>
      <trkpt lat="48.07993" lon="-4.22414">
        <ele>62</ele>
        <time>2015-02-26T10:37:49Z</time>
      </trkpt>
      <trkpt lat="48.07988" lon="-4.22408">
        <ele>62</ele>
        <time>2015-02-26T10:37:49Z</time>
      </trkpt>
      <trkpt lat="48.07982" lon="-4.22401">
        <ele>63</ele>
        <time>2015-02-26T10:37:49Z</time>
      </trkpt>
      <trkpt lat="48.07977" lon="-4.22398">
        <ele>63</ele>
        <time>2015-02-26T10:37:49Z</time>
      </trkpt>
      <trkpt lat="48.0797" lon="-4.22397">
        <ele>63</ele>
        <time>2015-02-26T10:37:49Z</time>
      </trkpt>
      <trkpt lat="48.07966" lon="-4.22398">
        <ele>63</ele>
        <time>2015-02-26T10:37:49Z</time>
      </trkpt>
      <trkpt lat="48.07961" lon="-4.22405">
        <ele>63</ele>
        <time>2015-02-26T10:37:49Z</time>
      </trkpt>
      <trkpt lat="48.07955" lon="-4.22416">
        <ele>64</ele>
        <time>2015-02-26T10:37:49Z</time>
      </trkpt>
      <trkpt lat="48.07946" lon="-4.22434">
        <ele>63</ele>
        <time>2015-02-26T10:37:49Z</time>
      </trkpt>
      <trkpt lat="48.07937" lon="-4.22452">
        <ele>63</ele>
        <time>2015-02-26T10:37:49Z</time>
      </trkpt>
      <trkpt lat="48.07928" lon="-4.2247">
        <ele>62</ele>
        <time>2015-02-26T10:37:49Z</time>
      </trkpt>
      <trkpt lat="48.07918" lon="-4.22488">
        <ele>62</ele>
        <time>2015-02-26T10:37:49Z</time>
      </trkpt>
      <trkpt lat="48.07912" lon="-4.22493">
        <ele>63</ele>
        <time>2015-02-26T10:37:49Z</time>
      </trkpt>
      <trkpt lat="48.07906" lon="-4.22489">
        <ele>63</ele>
        <time>2015-02-26T10:37:49Z</time>
      </trkpt>
      <trkpt lat="48.07901" lon="-4.2248">
        <ele>64</ele>
        <time>2015-02-26T10:37:49Z</time>
      </trkpt>
      <trkpt lat="48.07896" lon="-4.22473">
        <ele>64</ele>
        <time>2015-02-26T10:37:49Z</time>
      </trkpt>
      <trkpt lat="48.07889" lon="-4.22471">
        <ele>64</ele>
        <time>2015-02-26T10:37:49Z</time>
      </trkpt>
      <trkpt lat="48.07881" lon="-4.22471">
        <ele>64</ele>
        <time>2015-02-26T10:37:49Z</time>
      </trkpt>
      <trkpt lat="48.07874" lon="-4.22475">
        <ele>64</ele>
        <time>2015-02-26T10:37:49Z</time>
      </trkpt>
      <trkpt lat="48.07867" lon="-4.22483">
        <ele>64</ele>
        <time>2015-02-26T10:37:49Z</time>
      </trkpt>
      <trkpt lat="48.07861" lon="-4.22489">
        <ele>64</ele>
        <time>2015-02-26T10:37:49Z</time>
      </trkpt>
      <trkpt lat="48.07858" lon="-4.22476">
        <ele>65</ele>
        <time>2015-02-26T10:37:49Z</time>
      </trkpt>
      <trkpt lat="48.07855" lon="-4.22463">
        <ele>65</ele>
        <time>2015-02-26T10:37:49Z</time>
      </trkpt>
      <trkpt lat="48.07856" lon="-4.22447">
        <ele>65</ele>
        <time>2015-02-26T10:37:49Z</time>
      </trkpt>
      <trkpt lat="48.07859" lon="-4.22431">
        <ele>65</ele>
        <time>2015-02-26T10:37:49Z</time>
      </trkpt>
      <trkpt lat="48.07863" lon="-4.22414">
        <ele>67</ele>
        <time>2015-02-26T10:37:49Z</time>
      </trkpt>
      <trkpt lat="48.07874" lon="-4.22382">
        <ele>67</ele>
        <time>2015-02-26T10:37:49Z</time>
      </trkpt>
      <trkpt lat="48.07885" lon="-4.22349">
        <ele>67</ele>
        <time>2015-02-26T10:37:49Z</time>
      </trkpt>
      <trkpt lat="48.07895" lon="-4.22316">
        <ele>69</ele>
        <time>2015-02-26T10:37:49Z</time>
      </trkpt>
      <trkpt lat="48.07907" lon="-4.22271">
        <ele>70</ele>
        <time>2015-02-26T10:37:49Z</time>
      </trkpt>
      <trkpt lat="48.07921" lon="-4.22224">
        <ele>69</ele>
        <time>2015-02-26T10:37:49Z</time>
      </trkpt>
      <trkpt lat="48.07931" lon="-4.22194">
        <ele>69</ele>
        <time>2015-02-26T10:37:49Z</time>
      </trkpt>
      <trkpt lat="48.07945" lon="-4.22175">
        <ele>69</ele>
        <time>2015-02-26T10:37:49Z</time>
      </trkpt>
      <trkpt lat="48.07963" lon="-4.22156">
        <ele>69</ele>
        <time>2015-02-26T10:37:49Z</time>
      </trkpt>
      <trkpt lat="48.07974" lon="-4.22138">
        <ele>69</ele>
        <time>2015-02-26T10:37:49Z</time>
      </trkpt>
      <trkpt lat="48.07992" lon="-4.22101">
        <ele>69</ele>
        <time>2015-02-26T10:37:49Z</time>
      </trkpt>
      <trkpt lat="48.08013" lon="-4.22059">
        <ele>75</ele>
        <time>2015-02-26T10:37:49Z</time>
      </trkpt>
      <trkpt lat="48.08034" lon="-4.22015">
        <ele>77</ele>
        <time>2015-02-26T10:37:49Z</time>
      </trkpt>
      <trkpt lat="48.08046" lon="-4.22014">
        <ele>78</ele>
        <time>2015-02-26T10:37:49Z</time>
      </trkpt>
      <trkpt lat="48.0806" lon="-4.22017">
        <ele>79</ele>
        <time>2015-02-26T10:37:49Z</time>
      </trkpt>
      <trkpt lat="48.08072" lon="-4.22025">
        <ele>80</ele>
        <time>2015-02-26T10:37:49Z</time>
      </trkpt>
      <trkpt lat="48.08085" lon="-4.22037">
        <ele>86</ele>
        <time>2015-02-26T10:37:49Z</time>
      </trkpt>
      <trkpt lat="48.08098" lon="-4.22051">
        <ele>87</ele>
        <time>2015-02-26T10:37:49Z</time>
      </trkpt>
      <trkpt lat="48.08112" lon="-4.22065">
        <ele>87</ele>
        <time>2015-02-26T10:37:49Z</time>
      </trkpt>
      <trkpt lat="48.08122" lon="-4.22068">
        <ele>88</ele>
        <time>2015-02-26T10:37:49Z</time>
      </trkpt>
      <trkpt lat="48.08131" lon="-4.22065">
        <ele>89</ele>
        <time>2015-02-26T10:37:49Z</time>
      </trkpt>
      <trkpt lat="48.08139" lon="-4.22055">
        <ele>90</ele>
        <time>2015-02-26T10:37:49Z</time>
      </trkpt>
      <trkpt lat="48.0815" lon="-4.2204">
        <ele>90</ele>
        <time>2015-02-26T10:37:49Z</time>
      </trkpt>
      <trkpt lat="48.08162" lon="-4.22029">
        <ele>91</ele>
        <time>2015-02-26T10:37:49Z</time>
      </trkpt>
      <trkpt lat="48.08176" lon="-4.22018">
        <ele>98</ele>
        <time>2015-02-26T10:37:49Z</time>
      </trkpt>
      <trkpt lat="48.08183" lon="-4.21982">
        <ele>99</ele>
        <time>2015-02-26T10:37:49Z</time>
      </trkpt>
      <trkpt lat="48.08189" lon="-4.21947">
        <ele>101</ele>
        <time>2015-02-26T10:37:49Z</time>
      </trkpt>
      <trkpt lat="48.08196" lon="-4.21916">
        <ele>103</ele>
        <time>2015-02-26T10:37:49Z</time>
      </trkpt>
      <trkpt lat="48.08208" lon="-4.21885">
        <ele>104</ele>
        <time>2015-02-26T10:37:49Z</time>
      </trkpt>
      <trkpt lat="48.08221" lon="-4.21853">
        <ele>105</ele>
        <time>2015-02-26T10:37:49Z</time>
      </trkpt>
      <trkpt lat="48.08238" lon="-4.21825">
        <ele>107</ele>
        <time>2015-02-26T10:37:49Z</time>
      </trkpt>
      <trkpt lat="48.08255" lon="-4.21796">
        <ele>111</ele>
        <time>2015-02-26T10:37:49Z</time>
      </trkpt>
      <trkpt lat="48.08277" lon="-4.21779">
        <ele>112</ele>
        <time>2015-02-26T10:37:49Z</time>
      </trkpt>
      <trkpt lat="48.08299" lon="-4.21763">
        <ele>113</ele>
        <time>2015-02-26T10:37:49Z</time>
      </trkpt>
      <trkpt lat="48.08323" lon="-4.21751">
        <ele>114</ele>
        <time>2015-02-26T10:37:49Z</time>
      </trkpt>
      <trkpt lat="48.08348" lon="-4.2174">
        <ele>117</ele>
        <time>2015-02-26T10:37:49Z</time>
      </trkpt>
      <trkpt lat="48.08373" lon="-4.2173">
        <ele>119</ele>
        <time>2015-02-26T10:37:49Z</time>
      </trkpt>
      <trkpt lat="48.08399" lon="-4.21719">
        <ele>120</ele>
        <time>2015-02-26T10:37:49Z</time>
      </trkpt>
      <trkpt lat="48.08422" lon="-4.21708">
        <ele>125</ele>
        <time>2015-02-26T10:37:49Z</time>
      </trkpt>
      <trkpt lat="48.08426" lon="-4.21703">
        <ele>125</ele>
        <time>2015-02-26T10:37:49Z</time>
      </trkpt>
      <trkpt lat="48.08426" lon="-4.21681">
        <ele>125</ele>
      </trkpt>
      <trkpt lat="48.08422" lon="-4.2167">
        <ele>124</ele>
      </trkpt>
      <trkpt lat="48.08419" lon="-4.21657">
        <ele>126</ele>
      </trkpt>
      <trkpt lat="48.08417" lon="-4.21629">
        <ele>128</ele>
      </trkpt>
      <trkpt lat="48.08415" lon="-4.2161">
        <ele>125</ele>
      </trkpt>
      <trkpt lat="48.08412" lon="-4.21589">
        <ele>127</ele>
      </trkpt>
      <trkpt lat="48.08413" lon="-4.2156">
        <ele>127</ele>
      </trkpt>
      <trkpt lat="48.08418" lon="-4.21514">
        <ele>134</ele>
      </trkpt>
      <trkpt lat="48.0843" lon="-4.21452">
        <ele>137</ele>
      </trkpt>
      <trkpt lat="48.08438" lon="-4.21447">
        <ele>137</ele>
      </trkpt>
      <trkpt lat="48.0855" lon="-4.21516">
        <ele>141</ele>
      </trkpt>
      <trkpt lat="48.08586" lon="-4.21575">
        <ele>143</ele>
      </trkpt>
      <trkpt lat="48.08681" lon="-4.21613">
        <ele>143</ele>
      </trkpt>
      <trkpt lat="48.08732" lon="-4.21639">
        <ele>142</ele>
      </trkpt>
      <trkpt lat="48.08796" lon="-4.21632">
        <ele>139</ele>
      </trkpt>
      <trkpt lat="48.08852" lon="-4.21618">
        <ele>137</ele>
      </trkpt>
      <trkpt lat="48.08916" lon="-4.2162">
        <ele>137</ele>
      </trkpt>
      <trkpt lat="48.08988" lon="-4.21589">
        <ele>140</ele>
      </trkpt>
      <trkpt lat="48.08958" lon="-4.21438">
        <ele>142</ele>
      </trkpt>
      <trkpt lat="48.08959" lon="-4.21364">
        <ele>143</ele>
      </trkpt>
      <trkpt lat="48.0872" lon="-4.21236">
        <ele>148</ele>
      </trkpt>
      <trkpt lat="48.08702" lon="-4.21203">
        <ele>150</ele>
      </trkpt>
      <trkpt lat="48.08701" lon="-4.21154">
        <ele>152</ele>
      </trkpt>
      <trkpt lat="48.08704" lon="-4.21111">
        <ele>152</ele>
      </trkpt>
      <trkpt lat="48.08717" lon="-4.20964">
        <ele>156</ele>
      </trkpt>
      <trkpt lat="48.08636" lon="-4.20988">
        <ele>155</ele>
      </trkpt>
      <trkpt lat="48.08563" lon="-4.2097">
        <ele>152</ele>
      </trkpt>
      <trkpt lat="48.08464" lon="-4.20982">
        <ele>144</ele>
      </trkpt>
      <trkpt lat="48.0841" lon="-4.2098">
        <ele>136</ele>
        <time>2015-02-26T10:37:49Z</time>
      </trkpt>
      <trkpt lat="48.08391" lon="-4.20978">
        <ele>134</ele>
        <time>2015-02-26T10:37:49Z</time>
      </trkpt>
      <trkpt lat="48.08368" lon="-4.20974">
        <ele>132</ele>
        <time>2015-02-26T10:37:49Z</time>
      </trkpt>
      <trkpt lat="48.08344" lon="-4.20969">
        <ele>130</ele>
        <time>2015-02-26T10:37:49Z</time>
      </trkpt>
      <trkpt lat="48.0832" lon="-4.20964">
        <ele>123</ele>
        <time>2015-02-26T10:37:49Z</time>
      </trkpt>
      <trkpt lat="48.08295" lon="-4.20956">
        <ele>122</ele>
        <time>2015-02-26T10:37:49Z</time>
      </trkpt>
      <trkpt lat="48.08271" lon="-4.20944">
        <ele>121</ele>
        <time>2015-02-26T10:37:49Z</time>
      </trkpt>
      <trkpt lat="48.08251" lon="-4.20934">
        <ele>120</ele>
        <time>2015-02-26T10:37:49Z</time>
      </trkpt>
      <trkpt lat="48.08236" lon="-4.20924">
        <ele>117</ele>
        <time>2015-02-26T10:37:49Z</time>
      </trkpt>
      <trkpt lat="48.08218" lon="-4.20908">
        <ele>115</ele>
        <time>2015-02-26T10:37:49Z</time>
      </trkpt>
      <trkpt lat="48.08198" lon="-4.20892">
        <ele>115</ele>
        <time>2015-02-26T10:37:49Z</time>
      </trkpt>
      <trkpt lat="48.08176" lon="-4.20874">
        <ele>114</ele>
        <time>2015-02-26T10:37:49Z</time>
      </trkpt>
      <trkpt lat="48.08153" lon="-4.20854">
        <ele>110</ele>
        <time>2015-02-26T10:37:49Z</time>
      </trkpt>
      <trkpt lat="48.08133" lon="-4.20836">
        <ele>109</ele>
        <time>2015-02-26T10:37:49Z</time>
      </trkpt>
      <trkpt lat="48.08124" lon="-4.20829">
        <ele>109</ele>
        <time>2015-02-26T10:37:49Z</time>
      </trkpt>
      <trkpt lat="48.08114" lon="-4.20824">
        <ele>109</ele>
        <time>2015-02-26T10:37:49Z</time>
      </trkpt>
      <trkpt lat="48.08105" lon="-4.20819">
        <ele>108</ele>
        <time>2015-02-26T10:37:49Z</time>
      </trkpt>
      <trkpt lat="48.08092" lon="-4.20812">
        <ele>108</ele>
      </trkpt>
      <trkpt lat="48.08057" lon="-4.20799">
        <ele>105</ele>
      </trkpt>
      <trkpt lat="48.0803" lon="-4.20798">
        <ele>105</ele>
      </trkpt>
      <trkpt lat="48.07959" lon="-4.20823">
        <ele>103</ele>
      </trkpt>
      <trkpt lat="48.07898" lon="-4.20777">
        <ele>102</ele>
      </trkpt>
      <trkpt lat="48.07861" lon="-4.20735">
        <ele>105</ele>
      </trkpt>
      <trkpt lat="48.07803" lon="-4.20709">
        <ele>104</ele>
      </trkpt>
      <trkpt lat="48.07751" lon="-4.2066">
        <ele>103</ele>
      </trkpt>
      <trkpt lat="48.0769" lon="-4.20591">
        <ele>99</ele>
      </trkpt>
      <trkpt lat="48.07662" lon="-4.20562">
        <ele>97</ele>
      </trkpt>
      <trkpt lat="48.07602" lon="-4.2053">
        <ele>96</ele>
      </trkpt>
      <trkpt lat="48.07554" lon="-4.20483">
        <ele>96</ele>
      </trkpt>
      <trkpt lat="48.07479" lon="-4.20429">
        <ele>97</ele>
      </trkpt>
      <trkpt lat="48.07433" lon="-4.20361">
        <ele>100</ele>
      </trkpt>
      <trkpt lat="48.07527" lon="-4.19688">
        <ele>123</ele>
      </trkpt>
      <trkpt lat="48.07513" lon="-4.19692">
        <ele>123</ele>
      </trkpt>
      <trkpt lat="48.07507" lon="-4.19683">
        <ele>123</ele>
      </trkpt>
      <trkpt lat="48.07528" lon="-4.19596">
        <ele>123</ele>
      </trkpt>
      <trkpt lat="48.07542" lon="-4.19551">
        <ele>124</ele>
      </trkpt>
      <trkpt lat="48.07553" lon="-4.19506">
        <ele>124</ele>
      </trkpt>
      <trkpt lat="48.0756" lon="-4.19483">
        <ele>125</ele>
      </trkpt>
      <trkpt lat="48.0757" lon="-4.19446">
        <ele>126</ele>
      </trkpt>
      <trkpt lat="48.07477" lon="-4.19397">
        <ele>126</ele>
      </trkpt>
      <trkpt lat="48.07526" lon="-4.19266">
        <ele>127</ele>
      </trkpt>
      <trkpt lat="48.07556" lon="-4.19185">
        <ele>124</ele>
        <time>2015-02-26T10:37:49Z</time>
      </trkpt>
      <trkpt lat="48.07558" lon="-4.19203">
        <ele>125</ele>
        <time>2015-02-26T10:37:49Z</time>
      </trkpt>
    </trkseg>
  </trk>
</gpx>